IBE0258 MPTO-LEMD

Flight info

Callsign IBE0258
Flight time N/A
Altitude 37000
Route ALTEL/N0465F390 UL221 SATOE DCT DAWIN/M080F390 DCT 24N055W 27N050W 32N040W 36N030W DCT LENSI DCT ERPES/N0455F400 DCT ADORO L155 ZMR/N0454F390
Aircraft A333/H-SDE3GHIJ2J3J5M1RVWXY/LB2D1

Departure

Time 2026-04-27 07:30
Airport Tocumen International Airport (MPTO)

Arrival

Time N/A
Airport Adolfo Suárez Madrid–Barajas Airport (LEMD)
Time Latitude Longitude Altitude Speed Heading
2026-04-27 06:05 9.06637 -79.38595 34 ft 0 kts 299°
2026-04-27 07:19 9.06631 -79.38585 32 ft 4 kts 297°
2026-04-27 07:19 9.06620 -79.38561 31 ft 4 kts 289°
2026-04-27 07:20 9.06612 -79.38534 34 ft 4 kts 280°
2026-04-27 07:20 9.06609 -79.38508 34 ft 4 kts 264°
2026-04-27 07:20 9.06617 -79.38483 32 ft 4 kts 223°
2026-04-27 07:20 9.06622 -79.38478 31 ft 0 kts 208°
2026-04-27 07:24 9.06597 -79.38492 32 ft 9 kts 208°
2026-04-27 07:24 9.06525 -79.38531 34 ft 13 kts 208°
2026-04-27 07:24 9.06446 -79.38574 34 ft 13 kts 207°
2026-04-27 07:24 9.06366 -79.38611 34 ft 13 kts 197°
2026-04-27 07:25 9.06280 -79.38622 34 ft 13 kts 182°
2026-04-27 07:25 9.06194 -79.38630 34 ft 13 kts 194°
2026-04-27 07:25 9.06101 -79.38676 34 ft 17 kts 209°
2026-04-27 07:25 9.05984 -79.38743 34 ft 21 kts 209°
2026-04-27 07:26 9.05843 -79.38824 34 ft 25 kts 210°
2026-04-27 07:26 9.05689 -79.38914 34 ft 25 kts 210°
2026-04-27 07:26 9.05538 -79.39002 34 ft 25 kts 210°
2026-04-27 07:26 9.05391 -79.39087 34 ft 24 kts 209°
2026-04-27 07:27 9.05247 -79.39168 34 ft 23 kts 209°
2026-04-27 07:27 9.05108 -79.39248 34 ft 23 kts 210°
2026-04-27 07:27 9.04973 -79.39326 34 ft 21 kts 210°
2026-04-27 07:27 9.04887 -79.39376 34 ft 10 kts 207°
2026-04-27 07:28 9.04833 -79.39363 34 ft 8 kts 131°
2026-04-27 07:28 9.04823 -79.39348 34 ft 0 kts 123°
2026-04-27 07:28 9.04822 -79.39347 34 ft 0 kts 123°
2026-04-27 07:28 9.04820 -79.39344 34 ft 3 kts 122°
2026-04-27 07:29 9.04797 -79.39305 35 ft 9 kts 121°
2026-04-27 07:29 9.04784 -79.39256 35 ft 7 kts 76°
2026-04-27 07:29 9.04828 -79.39222 35 ft 9 kts 27°
2026-04-27 07:29 9.04987 -79.39132 36 ft 52 kts 29°
2026-04-27 07:30 9.05469 -79.38858 34 ft 105 kts 30°
2026-04-27 07:30 9.05952 -79.38584 36 ft 135 kts 29°
2026-04-27 07:30 9.06876 -79.38048 173 ft 160 kts 31°
2026-04-27 07:30 9.07800 -79.37498 768 ft 155 kts 31°
2026-04-27 07:31 9.08698 -79.36848 1180 ft 161 kts 39°
2026-04-27 07:31 9.09569 -79.36115 1696 ft 164 kts 40°
2026-04-27 07:31 9.10409 -79.35378 2091 ft 159 kts 40°
2026-04-27 07:31 9.11286 -79.34679 2305 ft 164 kts 36°
2026-04-27 07:32 9.12234 -79.33982 2466 ft 173 kts 35°
2026-04-27 07:32 9.13243 -79.33277 2662 ft 180 kts 34°
2026-04-27 07:32 9.14304 -79.32543 2862 ft 189 kts 36°
2026-04-27 07:32 9.15374 -79.31731 3078 ft 196 kts 38°
2026-04-27 07:33 9.16451 -79.30853 3332 ft 201 kts 39°
2026-04-27 07:33 9.17565 -79.29967 3611 ft 206 kts 37°
2026-04-27 07:33 9.18719 -79.29079 3885 ft 211 kts 36°
2026-04-27 07:33 9.19918 -79.28186 4153 ft 218 kts 36°
2026-04-27 07:34 9.21175 -79.27255 4323 ft 230 kts 35°
2026-04-27 07:34 9.22494 -79.26267 4458 ft 242 kts 36°
2026-04-27 07:34 9.23882 -79.25222 4609 ft 256 kts 36°
2026-04-27 07:34 9.25345 -79.24115 4843 ft 267 kts 36°
2026-04-27 07:35 9.26845 -79.22979 5014 ft 271 kts 36°
2026-04-27 07:35 9.28353 -79.21835 5035 ft 271 kts 36°
2026-04-27 07:35 9.29859 -79.20693 5038 ft 271 kts 36°
2026-04-27 07:35 9.31366 -79.19549 5033 ft 270 kts 36°
2026-04-27 07:36 9.32849 -79.18422 5038 ft 270 kts 36°
2026-04-27 07:36 9.34374 -79.17264 5038 ft 271 kts 36°
2026-04-27 07:36 9.35859 -79.16137 5034 ft 270 kts 36°
2026-04-27 07:36 9.37362 -79.14995 5050 ft 270 kts 36°
2026-04-27 07:37 9.38887 -79.13837 5044 ft 270 kts 36°
2026-04-27 07:37 9.40370 -79.12710 5043 ft 270 kts 36°
2026-04-27 07:37 9.41872 -79.11569 5042 ft 270 kts 36°
2026-04-27 07:37 9.43379 -79.10424 5046 ft 270 kts 36°
2026-04-27 07:38 9.44883 -79.09282 5041 ft 270 kts 36°
2026-04-27 07:38 9.46377 -79.08124 5040 ft 270 kts 39°
2026-04-27 07:38 9.47741 -79.06810 5043 ft 271 kts 46°
2026-04-27 07:38 9.48995 -79.05386 5040 ft 271 kts 49°
2026-04-27 07:39 9.50192 -79.03909 5044 ft 271 kts 50°
2026-04-27 07:39 9.51362 -79.02411 5103 ft 270 kts 50°
2026-04-27 07:39 9.52524 -79.00908 5408 ft 273 kts 51°
2026-04-27 07:39 9.53700 -78.99395 5878 ft 274 kts 50°
2026-04-27 07:40 9.54887 -78.97881 6381 ft 275 kts 50°
2026-04-27 07:40 9.56089 -78.96360 6823 ft 277 kts 50°
2026-04-27 07:40 9.57300 -78.94836 7293 ft 279 kts 50°
2026-04-27 07:40 9.58525 -78.93300 7721 ft 282 kts 50°
2026-04-27 07:41 9.59760 -78.91754 8199 ft 283 kts 50°
2026-04-27 07:41 9.61001 -78.90199 8687 ft 285 kts 50°
2026-04-27 07:41 9.62256 -78.88627 9120 ft 288 kts 50°
2026-04-27 07:41 9.63521 -78.87042 9588 ft 290 kts 51°
2026-04-27 07:42 9.64796 -78.85442 10027 ft 294 kts 51°
2026-04-27 07:42 9.66096 -78.83812 10276 ft 303 kts 50°
2026-04-27 07:42 9.67448 -78.82116 10470 ft 315 kts 51°
2026-04-27 07:42 9.68852 -78.80356 10627 ft 327 kts 50°
2026-04-27 07:43 9.70307 -78.78531 10793 ft 338 kts 50°
2026-04-27 07:43 9.71810 -78.76645 10947 ft 349 kts 51°
2026-04-27 07:43 9.73361 -78.74699 11104 ft 360 kts 50°
2026-04-27 07:43 9.74958 -78.72694 11254 ft 370 kts 50°
2026-04-27 07:44 9.76589 -78.70646 11516 ft 376 kts 50°
2026-04-27 07:44 9.78239 -78.68572 11860 ft 379 kts 50°
2026-04-27 07:44 9.79898 -78.66487 12210 ft 382 kts 50°
2026-04-27 07:44 9.81572 -78.64383 12560 ft 385 kts 50°
2026-04-27 07:45 9.83258 -78.62262 12875 ft 388 kts 50°
2026-04-27 07:45 9.84957 -78.60126 13230 ft 390 kts 50°
2026-04-27 07:45 9.86667 -78.57976 13552 ft 393 kts 50°
2026-04-27 07:45 9.88389 -78.55811 13892 ft 395 kts 50°
2026-04-27 07:46 9.90118 -78.53636 14184 ft 397 kts 50°
2026-04-27 07:46 9.91852 -78.51454 14517 ft 398 kts 50°
2026-04-27 07:46 9.93594 -78.49262 14805 ft 400 kts 50°
2026-04-27 07:46 9.95340 -78.47065 15146 ft 400 kts 50°
2026-04-27 07:47 9.97092 -78.44860 15442 ft 402 kts 50°
2026-04-27 07:47 9.98848 -78.42649 15762 ft 403 kts 50°
2026-04-27 07:47 10.00611 -78.40430 16072 ft 404 kts 50°
2026-04-27 07:47 10.02368 -78.38217 16446 ft 403 kts 50°
2026-04-27 07:48 10.04126 -78.36001 16758 ft 404 kts 50°
2026-04-27 07:48 10.05892 -78.33777 17024 ft 405 kts 50°
2026-04-27 07:48 10.07662 -78.31546 17299 ft 406 kts 51°
2026-04-27 07:48 10.09438 -78.29307 17577 ft 407 kts 50°
2026-04-27 07:49 10.11215 -78.27067 17856 ft 409 kts 51°
2026-04-27 07:49 10.12999 -78.24817 18158 ft 409 kts 50°
2026-04-27 07:49 10.14785 -78.22566 18354 ft 411 kts 50°
2026-04-27 07:49 10.16581 -78.20301 18571 ft 412 kts 50°
2026-04-27 07:50 10.18383 -78.18027 18740 ft 415 kts 50°
2026-04-27 07:50 10.20170 -78.15773 18945 ft 416 kts 50°
2026-04-27 07:50 10.21986 -78.13481 19120 ft 418 kts 51°
2026-04-27 07:50 10.23809 -78.11178 19328 ft 419 kts 51°
2026-04-27 07:51 10.25640 -78.08866 19499 ft 421 kts 51°
2026-04-27 07:51 10.27475 -78.06546 19689 ft 422 kts 51°
2026-04-27 07:51 10.29322 -78.04213 19856 ft 424 kts 51°
2026-04-27 07:51 10.31173 -78.01874 20042 ft 426 kts 51°
2026-04-27 07:52 10.33031 -77.99527 20221 ft 427 kts 51°
2026-04-27 07:52 10.34893 -77.97173 20400 ft 429 kts 50°
2026-04-27 07:52 10.36767 -77.94805 20512 ft 432 kts 51°
2026-04-27 07:52 10.38651 -77.92423 20712 ft 433 kts 51°
2026-04-27 07:53 10.40537 -77.90037 20868 ft 434 kts 51°
2026-04-27 07:53 10.42431 -77.87641 21052 ft 435 kts 51°
2026-04-27 07:53 10.44329 -77.85239 21206 ft 437 kts 51°
2026-04-27 07:53 10.46236 -77.82826 21368 ft 438 kts 51°
2026-04-27 07:54 10.48145 -77.80409 21522 ft 439 kts 51°
2026-04-27 07:54 10.50060 -77.77984 21694 ft 441 kts 51°
2026-04-27 07:54 10.51982 -77.75551 21848 ft 442 kts 51°
2026-04-27 07:54 10.53909 -77.73109 21998 ft 444 kts 51°
2026-04-27 07:55 10.55841 -77.70662 22163 ft 445 kts 51°
2026-04-27 07:55 10.57781 -77.68203 22292 ft 446 kts 51°
2026-04-27 07:55 10.59722 -77.65742 22464 ft 447 kts 51°
2026-04-27 07:55 10.61671 -77.63271 22612 ft 448 kts 51°
2026-04-27 07:56 10.63625 -77.60793 22736 ft 450 kts 51°
2026-04-27 07:56 10.65587 -77.58305 22889 ft 451 kts 51°
2026-04-27 07:56 10.67555 -77.55809 22997 ft 453 kts 51°
2026-04-27 07:56 10.69526 -77.53307 23180 ft 454 kts 51°
2026-04-27 07:57 10.71503 -77.50798 23305 ft 456 kts 51°
2026-04-27 07:57 10.73485 -77.48280 23453 ft 457 kts 51°
2026-04-27 07:57 10.75474 -77.45755 23586 ft 458 kts 51°
2026-04-27 07:57 10.77466 -77.43224 23669 ft 460 kts 51°
2026-04-27 07:58 10.79463 -77.40686 23822 ft 460 kts 51°
2026-04-27 07:58 10.81439 -77.38176 23908 ft 462 kts 51°
2026-04-27 07:58 10.83443 -77.35629 24054 ft 462 kts 51°
2026-04-27 07:58 10.85456 -77.33069 24168 ft 463 kts 51°
2026-04-27 07:59 10.87468 -77.30510 24278 ft 464 kts 51°
2026-04-27 07:59 10.91504 -77.25375 24529 ft 466 kts 51°
2026-04-27 07:59 10.93528 -77.22799 24667 ft 466 kts 51°
2026-04-27 08:00 10.95557 -77.20217 24779 ft 467 kts 51°
2026-04-27 08:00 10.97587 -77.17631 24901 ft 468 kts 51°
2026-04-27 08:00 10.99623 -77.15038 25041 ft 469 kts 51°
2026-04-27 08:00 11.01662 -77.12441 25140 ft 470 kts 52°
2026-04-27 08:01 11.03705 -77.09837 25255 ft 471 kts 51°
2026-04-27 08:01 11.05753 -77.07227 25359 ft 473 kts 51°
2026-04-27 08:01 11.07807 -77.04608 25475 ft 474 kts 51°
2026-04-27 08:01 11.09864 -77.01985 25605 ft 475 kts 51°
2026-04-27 08:02 11.11926 -76.99356 25722 ft 476 kts 51°
2026-04-27 08:02 11.13992 -76.96719 25839 ft 477 kts 51°
2026-04-27 08:02 11.16060 -76.94081 25953 ft 478 kts 51°
2026-04-27 08:02 11.18135 -76.91432 26071 ft 479 kts 51°
2026-04-27 08:03 11.20213 -76.88779 26186 ft 480 kts 51°
2026-04-27 08:03 11.22294 -76.86121 26305 ft 481 kts 51°
2026-04-27 08:03 11.24378 -76.83459 26446 ft 481 kts 51°
2026-04-27 08:03 11.26463 -76.80795 26564 ft 482 kts 51°
2026-04-27 08:04 11.28554 -76.78122 26674 ft 483 kts 51°
2026-04-27 08:04 11.30651 -76.75442 26781 ft 484 kts 51°
2026-04-27 08:04 11.32751 -76.72756 26900 ft 485 kts 51°
2026-04-27 08:04 11.34853 -76.70067 27025 ft 486 kts 51°
2026-04-27 08:05 11.36961 -76.67370 27118 ft 487 kts 51°
2026-04-27 08:05 11.39047 -76.64700 27177 ft 490 kts 51°
2026-04-27 08:05 11.41172 -76.61980 27264 ft 491 kts 51°
2026-04-27 08:05 11.43300 -76.59254 27385 ft 492 kts 51°
2026-04-27 08:06 11.45431 -76.56525 27492 ft 493 kts 51°
2026-04-27 08:06 11.47565 -76.53792 27611 ft 493 kts 51°
2026-04-27 08:06 11.49705 -76.51049 27724 ft 494 kts 51°
2026-04-27 08:06 11.51845 -76.48306 27866 ft 495 kts 51°
2026-04-27 08:07 11.53989 -76.45557 27999 ft 495 kts 51°
2026-04-27 08:07 11.56133 -76.42808 28103 ft 496 kts 51°
2026-04-27 08:07 11.58282 -76.40050 28214 ft 497 kts 51°
2026-04-27 08:07 11.60436 -76.37286 28319 ft 498 kts 51°
2026-04-27 08:08 11.62596 -76.34514 28433 ft 499 kts 51°
2026-04-27 08:08 11.64756 -76.31741 28531 ft 500 kts 51°
2026-04-27 08:08 11.66920 -76.28961 28638 ft 501 kts 51°
2026-04-27 08:08 11.69089 -76.26174 28755 ft 502 kts 51°
2026-04-27 08:09 11.73442 -76.20580 28826 ft 506 kts 51°
2026-04-27 08:09 11.75633 -76.17763 28927 ft 507 kts 51°
2026-04-27 08:09 11.77826 -76.14942 29039 ft 508 kts 51°
2026-04-27 08:10 11.80022 -76.12117 29169 ft 508 kts 51°
2026-04-27 08:10 11.82216 -76.09293 29297 ft 508 kts 51°
2026-04-27 08:10 11.86615 -76.03630 29474 ft 510 kts 51°
2026-04-27 08:11 11.88819 -76.00791 29581 ft 511 kts 51°
2026-04-27 08:11 11.91027 -75.97947 29655 ft 511 kts 51°
2026-04-27 08:11 11.95451 -75.92245 29855 ft 513 kts 51°
2026-04-27 08:12 11.99887 -75.86523 30040 ft 514 kts 51°
2026-04-27 08:12 12.02106 -75.83660 30156 ft 514 kts 51°
2026-04-27 08:12 12.04320 -75.80802 30272 ft 513 kts 51°
2026-04-27 08:13 12.08761 -75.75067 30485 ft 513 kts 51°
2026-04-27 08:13 12.10940 -75.72251 30641 ft 512 kts 51°
2026-04-27 08:13 12.13149 -75.69397 30755 ft 512 kts 51°
2026-04-27 08:14 12.15359 -75.66540 30862 ft 512 kts 51°
2026-04-27 08:14 12.17568 -75.63684 30969 ft 512 kts 51°
2026-04-27 08:14 12.19776 -75.60828 31094 ft 512 kts 51°
2026-04-27 08:14 12.21986 -75.57970 31216 ft 512 kts 51°
2026-04-27 08:15 12.24194 -75.55113 31348 ft 512 kts 52°
2026-04-27 08:15 12.26399 -75.52257 31486 ft 512 kts 52°
2026-04-27 08:15 12.28603 -75.49404 31629 ft 511 kts 52°
2026-04-27 08:15 12.30807 -75.46548 31786 ft 511 kts 52°
2026-04-27 08:16 12.33009 -75.43695 31948 ft 511 kts 52°
2026-04-27 08:16 12.35212 -75.40841 32113 ft 511 kts 52°
2026-04-27 08:16 12.37409 -75.37991 32299 ft 511 kts 52°
2026-04-27 08:16 12.39610 -75.35138 32400 ft 512 kts 52°
2026-04-27 08:17 12.41817 -75.32274 32568 ft 512 kts 52°
2026-04-27 08:17 12.44022 -75.29413 32759 ft 511 kts 52°
2026-04-27 08:17 12.46222 -75.26558 32945 ft 511 kts 52°
2026-04-27 08:17 12.48420 -75.23704 33139 ft 511 kts 53°
2026-04-27 08:18 12.50618 -75.20848 33330 ft 510 kts 53°
2026-04-27 08:18 12.52812 -75.17997 33512 ft 510 kts 53°
2026-04-27 08:18 12.54268 -75.16106 33637 ft 510 kts 53°
2026-04-27 08:18 12.57198 -75.12296 33897 ft 510 kts 53°
2026-04-27 08:19 12.58650 -75.10408 34006 ft 509 kts 53°
2026-04-27 08:19 12.60842 -75.07557 34171 ft 509 kts 53°
2026-04-27 08:19 12.63032 -75.04707 34361 ft 508 kts 53°
2026-04-27 08:19 12.65213 -75.01869 34582 ft 507 kts 53°
2026-04-27 08:20 12.67390 -74.99035 34748 ft 506 kts 53°
2026-04-27 08:20 12.69570 -74.96195 34903 ft 507 kts 53°
2026-04-27 08:20 12.71746 -74.93360 35013 ft 508 kts 53°
2026-04-27 08:20 12.73931 -74.90513 35135 ft 508 kts 53°
2026-04-27 08:21 12.76115 -74.87666 35290 ft 508 kts 53°
2026-04-27 08:21 12.78298 -74.84820 35444 ft 508 kts 53°
2026-04-27 08:21 12.80477 -74.81977 35617 ft 507 kts 53°
2026-04-27 08:21 12.82653 -74.79137 35762 ft 507 kts 53°
2026-04-27 08:22 12.84833 -74.76293 35921 ft 507 kts 53°
2026-04-27 08:22 12.87008 -74.73452 36064 ft 507 kts 53°
2026-04-27 08:22 12.89187 -74.70607 36208 ft 507 kts 53°
2026-04-27 08:22 12.91361 -74.67766 36352 ft 507 kts 53°
2026-04-27 08:23 12.93536 -74.64924 36471 ft 507 kts 53°
2026-04-27 08:23 12.95709 -74.62082 36624 ft 506 kts 53°
2026-04-27 08:23 12.97881 -74.59242 36763 ft 506 kts 53°
2026-04-27 08:23 13.00053 -74.56401 36894 ft 506 kts 54°
2026-04-27 08:24 13.04403 -74.50709 36963 ft 508 kts 54°
2026-04-27 08:24 13.08729 -74.45043 36962 ft 508 kts 54°
2026-04-27 08:25 13.13082 -74.39339 36965 ft 508 kts 54°
2026-04-27 08:25 13.17436 -74.33630 36963 ft 507 kts 53°
2026-04-27 08:26 13.21776 -74.27937 36967 ft 506 kts 53°
2026-04-27 08:26 13.26108 -74.22248 36962 ft 506 kts 53°
2026-04-27 08:27 13.30441 -74.16556 36967 ft 506 kts 53°
2026-04-27 08:27 13.34772 -74.10862 36977 ft 506 kts 53°
2026-04-27 08:28 13.39112 -74.05153 36972 ft 508 kts 53°
2026-04-27 08:28 13.43467 -73.99419 36969 ft 509 kts 53°
2026-04-27 08:29 13.47813 -73.93696 36972 ft 507 kts 53°
2026-04-27 08:29 13.52149 -73.87981 36966 ft 507 kts 53°
2026-04-27 08:30 13.56481 -73.82267 36969 ft 507 kts 53°
2026-04-27 08:30 13.60812 -73.76551 36969 ft 507 kts 53°
2026-04-27 08:31 13.65142 -73.70832 36972 ft 507 kts 53°
2026-04-27 08:31 13.69476 -73.65104 36975 ft 509 kts 53°
2026-04-27 08:32 13.73825 -73.59352 36968 ft 510 kts 53°
2026-04-27 08:32 13.78181 -73.53588 36971 ft 510 kts 53°
2026-04-27 08:33 13.82503 -73.47865 36965 ft 510 kts 53°
2026-04-27 08:33 13.86855 -73.42098 36972 ft 510 kts 53°
2026-04-27 08:34 13.91203 -73.36331 36971 ft 510 kts 53°
2026-04-27 08:34 13.95550 -73.30564 36973 ft 510 kts 53°
2026-04-27 08:35 13.99897 -73.24790 36973 ft 511 kts 53°
2026-04-27 08:35 14.04250 -73.19006 36977 ft 511 kts 53°
2026-04-27 08:36 14.08603 -73.13217 36974 ft 511 kts 53°
2026-04-27 08:36 14.12956 -73.07426 36971 ft 511 kts 53°
2026-04-27 08:37 14.17305 -73.01634 36971 ft 511 kts 53°
2026-04-27 08:37 14.21653 -72.95840 36974 ft 511 kts 53°
2026-04-27 08:38 14.26001 -72.90041 36979 ft 512 kts 53°
2026-04-27 08:38 14.30353 -72.84234 36979 ft 512 kts 53°
2026-04-27 08:39 14.34717 -72.78406 36970 ft 514 kts 53°
2026-04-27 08:39 14.39085 -72.72570 36976 ft 514 kts 53°
2026-04-27 08:40 14.43454 -72.66727 36976 ft 514 kts 53°
2026-04-27 08:40 14.47820 -72.60883 36979 ft 514 kts 53°
2026-04-27 08:41 14.52186 -72.55037 36979 ft 514 kts 53°
2026-04-27 08:41 14.56548 -72.49191 36982 ft 514 kts 53°
2026-04-27 08:42 14.60910 -72.43341 36987 ft 514 kts 53°
2026-04-27 08:42 14.65276 -72.37479 36983 ft 516 kts 53°
2026-04-27 08:43 14.69655 -72.31598 36979 ft 516 kts 53°
2026-04-27 08:43 14.74032 -72.25715 36983 ft 516 kts 53°
2026-04-27 08:44 14.78372 -72.19877 36977 ft 516 kts 53°
2026-04-27 08:44 14.82738 -72.14001 36975 ft 515 kts 53°
2026-04-27 08:45 14.87104 -72.08118 36982 ft 515 kts 53°
2026-04-27 08:45 14.91468 -72.02235 36992 ft 516 kts 53°
2026-04-27 08:46 14.95836 -71.96341 36985 ft 517 kts 53°
2026-04-27 08:46 15.00211 -71.90435 36981 ft 518 kts 53°
2026-04-27 08:47 15.04586 -71.84523 36974 ft 517 kts 53°
2026-04-27 08:47 15.08954 -71.78617 36984 ft 517 kts 53°
2026-04-27 08:48 15.13321 -71.72707 36964 ft 517 kts 53°
2026-04-27 08:48 15.17686 -71.66796 36985 ft 517 kts 53°
2026-04-27 08:49 15.22049 -71.60881 36994 ft 517 kts 53°
2026-04-27 08:49 15.26418 -71.54956 36982 ft 518 kts 53°
2026-04-27 08:50 15.30785 -71.49029 36985 ft 519 kts 53°
2026-04-27 08:50 15.35157 -71.43089 37043 ft 519 kts 53°
2026-04-27 08:51 15.37345 -71.40115 37195 ft 518 kts 53°
2026-04-27 08:51 15.39528 -71.37147 37362 ft 518 kts 53°
2026-04-27 08:51 15.41710 -71.34178 37485 ft 517 kts 53°
2026-04-27 08:51 15.43890 -71.31211 37614 ft 517 kts 53°
2026-04-27 08:52 15.46068 -71.28247 37755 ft 517 kts 53°
2026-04-27 08:52 15.48247 -71.25279 37865 ft 517 kts 53°
2026-04-27 08:52 15.50421 -71.22316 37998 ft 517 kts 53°
2026-04-27 08:52 15.52596 -71.19351 38132 ft 517 kts 53°
2026-04-27 08:53 15.56960 -71.13397 38232 ft 519 kts 53°
2026-04-27 08:53 15.59143 -71.10419 38365 ft 519 kts 53°
2026-04-27 08:53 15.61325 -71.07440 38499 ft 518 kts 53°
2026-04-27 08:54 15.63504 -71.04466 38603 ft 518 kts 53°
2026-04-27 08:54 15.65682 -71.01489 38701 ft 518 kts 53°
2026-04-27 08:54 15.70032 -70.95543 38881 ft 517 kts 53°
2026-04-27 08:55 15.74381 -70.89594 38991 ft 518 kts 53°
2026-04-27 08:55 15.78729 -70.83639 38990 ft 517 kts 53°
2026-04-27 08:56 15.83071 -70.77689 38997 ft 517 kts 53°
2026-04-27 08:56 15.87419 -70.71726 38997 ft 518 kts 53°
2026-04-27 08:57 15.93946 -70.62765 38981 ft 519 kts 53°
2026-04-27 08:58 15.98297 -70.56787 38994 ft 518 kts 53°
2026-04-27 08:58 16.02614 -70.50849 38990 ft 518 kts 53°
2026-04-27 08:59 16.06958 -70.44870 38990 ft 518 kts 53°
2026-04-27 08:59 16.11296 -70.38893 38997 ft 518 kts 53°
2026-04-27 09:00 16.15633 -70.32914 38997 ft 518 kts 53°
2026-04-27 09:00 16.19975 -70.26923 38980 ft 518 kts 53°
2026-04-27 09:01 16.24312 -70.20934 38998 ft 518 kts 53°
2026-04-27 09:01 16.28666 -70.14915 38991 ft 519 kts 53°
2026-04-27 09:02 16.33004 -70.08914 38991 ft 519 kts 53°
2026-04-27 09:02 16.37344 -70.02906 38996 ft 519 kts 53°
2026-04-27 09:03 16.41680 -69.96898 38997 ft 519 kts 53°
2026-04-27 09:03 16.46020 -69.90879 38992 ft 520 kts 53°
2026-04-27 09:04 16.50366 -69.84848 38989 ft 520 kts 53°
2026-04-27 09:04 16.54678 -69.78858 38989 ft 520 kts 53°
2026-04-27 09:05 16.59019 -69.72823 38989 ft 520 kts 53°
2026-04-27 09:05 16.63357 -69.66786 38992 ft 520 kts 53°
2026-04-27 09:06 16.67695 -69.60744 38995 ft 520 kts 53°
2026-04-27 09:06 16.71328 -69.55681 38998 ft 521 kts 53°
2026-04-27 09:07 16.74206 -69.51667 38998 ft 522 kts 53°
2026-04-27 09:07 16.80022 -69.43549 38995 ft 522 kts 53°
2026-04-27 09:08 16.84370 -69.37474 38999 ft 522 kts 53°
2026-04-27 09:08 16.88716 -69.31396 38998 ft 522 kts 53°
2026-04-27 09:09 16.93005 -69.25273 38995 ft 522 kts 58°
2026-04-27 09:09 16.96838 -69.18897 38992 ft 522 kts 59°
2026-04-27 09:10 17.00633 -69.12378 39000 ft 521 kts 59°
2026-04-27 09:10 17.04355 -69.05934 39001 ft 521 kts 59°
2026-04-27 09:11 17.08104 -68.99450 39001 ft 521 kts 59°
2026-04-27 09:11 17.11887 -68.92979 38999 ft 521 kts 58°
2026-04-27 09:12 17.15742 -68.86560 38998 ft 521 kts 58°
2026-04-27 09:12 17.19610 -68.80145 38999 ft 521 kts 58°
2026-04-27 09:13 17.23458 -68.73716 38999 ft 521 kts 58°
2026-04-27 09:13 17.27268 -68.67257 39001 ft 522 kts 59°
2026-04-27 09:14 17.31072 -68.60784 38998 ft 522 kts 59°
2026-04-27 09:14 17.34880 -68.54304 39003 ft 522 kts 59°
2026-04-27 09:15 17.38686 -68.47830 38996 ft 522 kts 59°
2026-04-27 09:15 17.42488 -68.41357 39001 ft 522 kts 59°
2026-04-27 09:16 17.46285 -68.34886 38999 ft 521 kts 59°
2026-04-27 09:16 17.50081 -68.28411 39002 ft 521 kts 59°
2026-04-27 09:17 17.53875 -68.21932 39009 ft 522 kts 59°
2026-04-27 09:17 17.57673 -68.15440 39001 ft 523 kts 59°
2026-04-27 09:18 17.61474 -68.08937 39002 ft 523 kts 59°
2026-04-27 09:18 17.65274 -68.02429 39001 ft 523 kts 59°
2026-04-27 09:19 17.68992 -67.95873 39001 ft 523 kts 61°
2026-04-27 09:19 17.72574 -67.89228 39001 ft 523 kts 62°
2026-04-27 09:20 17.76112 -67.82618 39004 ft 523 kts 61°
2026-04-27 09:20 17.79687 -67.75971 39012 ft 523 kts 61°
2026-04-27 09:21 17.83275 -67.69316 39005 ft 524 kts 61°
2026-04-27 09:21 17.86870 -67.62650 39004 ft 525 kts 61°
2026-04-27 09:22 17.90463 -67.55980 39004 ft 525 kts 61°
2026-04-27 09:22 17.94052 -67.49310 39004 ft 524 kts 61°
2026-04-27 09:23 17.97639 -67.42633 39004 ft 524 kts 61°
2026-04-27 09:23 18.01220 -67.35962 39009 ft 524 kts 61°
2026-04-27 09:24 18.04800 -67.29288 39007 ft 524 kts 61°
2026-04-27 09:24 18.08382 -67.22600 39010 ft 526 kts 61°
2026-04-27 09:25 18.11967 -67.15901 39013 ft 526 kts 61°
2026-04-27 09:25 18.15548 -67.09203 39015 ft 525 kts 61°
2026-04-27 09:26 18.19126 -67.02501 39016 ft 525 kts 61°
2026-04-27 09:26 18.22702 -66.95798 39025 ft 525 kts 61°
2026-04-27 09:27 18.26274 -66.89094 39028 ft 525 kts 62°
2026-04-27 09:27 18.29840 -66.82396 39029 ft 524 kts 62°
2026-04-27 09:28 18.33403 -66.75696 39032 ft 525 kts 62°
2026-04-27 09:28 18.36967 -66.68986 39030 ft 526 kts 62°
2026-04-27 09:29 18.40534 -66.62262 39031 ft 526 kts 62°
2026-04-27 09:29 18.44070 -66.55590 39023 ft 526 kts 62°
2026-04-27 09:30 18.47630 -66.48866 39025 ft 525 kts 62°
2026-04-27 09:30 18.51182 -66.42150 39026 ft 525 kts 62°
2026-04-27 09:31 18.54735 -66.35425 39017 ft 525 kts 62°
2026-04-27 09:31 18.58283 -66.28701 39024 ft 526 kts 62°
2026-04-27 09:32 18.61844 -66.21947 39019 ft 527 kts 62°
2026-04-27 09:32 18.65403 -66.15187 39021 ft 527 kts 62°
2026-04-27 09:33 18.68961 -66.08423 39020 ft 527 kts 62°
2026-04-27 09:33 18.72516 -66.01657 39015 ft 527 kts 62°
2026-04-27 09:34 18.76067 -65.94892 39014 ft 527 kts 62°
2026-04-27 09:34 18.79615 -65.88124 39012 ft 527 kts 62°
2026-04-27 09:35 18.83158 -65.81359 39017 ft 527 kts 62°
2026-04-27 09:35 18.86704 -65.74578 39015 ft 528 kts 62°
2026-04-27 09:36 18.90254 -65.67786 39007 ft 528 kts 62°
2026-04-27 09:36 18.93801 -65.60990 39011 ft 528 kts 62°
2026-04-27 09:37 18.97341 -65.54201 39014 ft 526 kts 62°
2026-04-27 09:37 19.00866 -65.47431 39010 ft 526 kts 62°
2026-04-27 09:38 19.04388 -65.40660 39010 ft 526 kts 62°
2026-04-27 09:38 19.07910 -65.33881 39018 ft 527 kts 62°
2026-04-27 09:39 19.11446 -65.27068 39019 ft 529 kts 62°
2026-04-27 09:39 19.14978 -65.20255 39020 ft 527 kts 62°
2026-04-27 09:40 19.18500 -65.13454 39021 ft 527 kts 62°
2026-04-27 09:40 19.21991 -65.06705 39020 ft 527 kts 62°
2026-04-27 09:41 19.25506 -64.99901 39019 ft 527 kts 63°
2026-04-27 09:41 19.29016 -64.93099 39015 ft 526 kts 62°
2026-04-27 09:42 19.32545 -64.86254 39027 ft 527 kts 62°
2026-04-27 09:42 19.36063 -64.79420 39015 ft 529 kts 62°
2026-04-27 09:43 19.39563 -64.72614 39023 ft 529 kts 62°
2026-04-27 09:43 19.43081 -64.65766 39015 ft 529 kts 62°
2026-04-27 09:44 19.46595 -64.58917 39027 ft 529 kts 63°
2026-04-27 09:44 19.50109 -64.52061 39016 ft 529 kts 63°
2026-04-27 09:45 19.53618 -64.45205 39031 ft 529 kts 63°
2026-04-27 09:45 19.57124 -64.38348 39013 ft 529 kts 63°
2026-04-27 09:46 19.60630 -64.31484 39024 ft 528 kts 62°
2026-04-27 09:46 19.64124 -64.24633 39008 ft 528 kts 62°
2026-04-27 09:47 19.67614 -64.17783 39020 ft 528 kts 62°
2026-04-27 09:47 19.71100 -64.10932 39020 ft 528 kts 62°
2026-04-27 09:48 19.74584 -64.04077 39020 ft 528 kts 62°
2026-04-27 09:48 19.78063 -63.97226 39013 ft 527 kts 62°
2026-04-27 09:49 19.81546 -63.90357 39027 ft 529 kts 62°
2026-04-27 09:49 19.85034 -63.83470 39014 ft 530 kts 62°
2026-04-27 09:50 19.88521 -63.76578 39027 ft 530 kts 62°
2026-04-27 09:50 19.92006 -63.69680 39025 ft 530 kts 62°
2026-04-27 09:51 19.95485 -63.62785 39020 ft 529 kts 62°
2026-04-27 09:51 19.98961 -63.55889 39021 ft 529 kts 62°
2026-04-27 09:52 20.02415 -63.49027 39021 ft 530 kts 62°
2026-04-27 09:52 20.05900 -63.42097 39022 ft 532 kts 63°
2026-04-27 09:53 20.09381 -63.35166 39023 ft 531 kts 63°
2026-04-27 09:53 20.12291 -63.29365 39023 ft 530 kts 63°
2026-04-27 09:54 20.15761 -63.22441 39024 ft 530 kts 63°
2026-04-27 09:54 20.19227 -63.15515 39023 ft 530 kts 63°
2026-04-27 09:55 20.22668 -63.08632 39017 ft 530 kts 62°
2026-04-27 09:55 20.27887 -62.98173 39027 ft 532 kts 63°
2026-04-27 09:56 20.31332 -62.91261 39026 ft 532 kts 63°
2026-04-27 09:56 20.34796 -62.84300 39026 ft 532 kts 63°
2026-04-27 09:57 20.38257 -62.77339 39026 ft 531 kts 63°
2026-04-27 09:57 20.41713 -62.70378 39029 ft 531 kts 63°
2026-04-27 09:58 20.45164 -62.63418 39029 ft 531 kts 63°
2026-04-27 09:58 20.48621 -62.56437 39030 ft 533 kts 63°
2026-04-27 09:59 20.52083 -62.49437 39027 ft 534 kts 63°
2026-04-27 09:59 20.55551 -62.42432 39029 ft 534 kts 62°
2026-04-27 10:00 20.59033 -62.35436 39032 ft 534 kts 62°
2026-04-27 10:00 20.62516 -62.28435 39032 ft 534 kts 62°
2026-04-27 10:01 20.65992 -62.21435 39021 ft 534 kts 62°
2026-04-27 10:01 20.69444 -62.14474 39036 ft 535 kts 62°
2026-04-27 10:02 20.72923 -62.07446 39036 ft 535 kts 62°
2026-04-27 10:02 20.76400 -62.00415 39036 ft 535 kts 62°
2026-04-27 10:03 20.79873 -61.93380 39034 ft 535 kts 62°
2026-04-27 10:03 20.83346 -61.86339 39036 ft 536 kts 62°
2026-04-27 10:04 20.86819 -61.79287 39034 ft 536 kts 62°
2026-04-27 10:04 20.90288 -61.72235 39048 ft 536 kts 62°
2026-04-27 10:05 20.93762 -61.65163 39040 ft 537 kts 62°
2026-04-27 10:05 20.97239 -61.58077 39040 ft 538 kts 62°
2026-04-27 10:06 21.00711 -61.50991 39039 ft 538 kts 62°
2026-04-27 10:06 21.04179 -61.43904 39040 ft 537 kts 62°
2026-04-27 10:07 21.07645 -61.36813 39038 ft 537 kts 62°
2026-04-27 10:07 21.11104 -61.29725 39052 ft 537 kts 62°
2026-04-27 10:08 21.14569 -61.22614 39035 ft 539 kts 62°
2026-04-27 10:08 21.18041 -61.15483 39043 ft 540 kts 62°
2026-04-27 10:09 21.21509 -61.08350 39044 ft 540 kts 62°
2026-04-27 10:09 21.24974 -61.01213 39038 ft 539 kts 62°
2026-04-27 10:10 21.28434 -60.94077 39044 ft 539 kts 62°
2026-04-27 10:10 21.31865 -60.86990 39054 ft 539 kts 62°
2026-04-27 10:11 21.35320 -60.79844 39045 ft 540 kts 62°
2026-04-27 10:11 21.38781 -60.72677 39051 ft 541 kts 62°
2026-04-27 10:12 21.42236 -60.65514 39040 ft 540 kts 62°
2026-04-27 10:12 21.45687 -60.58348 39052 ft 540 kts 62°
2026-04-27 10:13 21.49133 -60.51181 39050 ft 540 kts 62°
2026-04-27 10:13 21.52580 -60.44005 39058 ft 540 kts 62°
2026-04-27 10:14 21.56024 -60.36823 39048 ft 541 kts 62°
2026-04-27 10:14 21.59468 -60.29633 39048 ft 542 kts 62°
2026-04-27 10:15 21.62912 -60.22433 39048 ft 542 kts 62°
2026-04-27 10:15 21.66352 -60.15230 39049 ft 542 kts 62°
2026-04-27 10:16 21.69790 -60.08022 39047 ft 541 kts 62°
2026-04-27 10:16 21.73225 -60.00812 39056 ft 541 kts 62°
2026-04-27 10:17 21.76630 -59.93652 39050 ft 542 kts 62°
2026-04-27 10:17 21.80059 -59.86435 39050 ft 541 kts 62°
2026-04-27 10:18 21.83481 -59.79221 39052 ft 541 kts 62°
2026-04-27 10:18 21.86899 -59.72005 39051 ft 541 kts 62°
2026-04-27 10:19 21.90313 -59.64788 39051 ft 541 kts 63°
2026-04-27 10:19 21.93725 -59.57564 39056 ft 542 kts 62°
2026-04-27 10:20 21.97144 -59.50315 39057 ft 544 kts 62°
2026-04-27 10:20 22.00570 -59.43043 39056 ft 544 kts 62°
2026-04-27 10:21 22.03992 -59.35766 39056 ft 544 kts 62°
2026-04-27 10:21 22.07409 -59.28492 39059 ft 544 kts 62°
2026-04-27 10:22 22.10820 -59.21220 39056 ft 543 kts 62°
2026-04-27 10:22 22.14226 -59.13946 39060 ft 544 kts 62°
2026-04-27 10:23 22.17640 -59.06647 39059 ft 546 kts 62°
2026-04-27 10:23 22.21057 -58.99332 39061 ft 546 kts 62°
2026-04-27 10:24 22.24468 -58.92016 39061 ft 546 kts 62°
2026-04-27 10:24 22.27876 -58.84698 39058 ft 546 kts 62°
2026-04-27 10:25 22.31259 -58.77423 39059 ft 546 kts 62°
2026-04-27 10:25 22.34666 -58.70085 39061 ft 547 kts 62°
2026-04-27 10:26 22.38081 -58.62720 39063 ft 548 kts 62°
2026-04-27 10:26 22.41491 -58.55354 39062 ft 548 kts 62°
2026-04-27 10:27 22.44901 -58.47977 39063 ft 548 kts 62°
2026-04-27 10:27 22.48305 -58.40602 39064 ft 548 kts 62°
2026-04-27 10:28 22.51702 -58.33233 39071 ft 548 kts 62°
2026-04-27 10:28 22.55107 -58.25833 39064 ft 551 kts 62°
2026-04-27 10:29 22.58522 -58.18402 39062 ft 551 kts 62°
2026-04-27 10:29 22.61930 -58.10976 39064 ft 550 kts 62°
2026-04-27 10:30 22.65329 -58.03557 39064 ft 550 kts 62°
2026-04-27 10:30 22.68725 -57.96134 39064 ft 550 kts 62°
2026-04-27 10:31 22.72123 -57.88694 39067 ft 552 kts 62°
2026-04-27 10:31 22.75506 -57.81278 39067 ft 553 kts 62°
2026-04-27 10:32 22.78911 -57.73801 39069 ft 553 kts 62°
2026-04-27 10:32 22.82314 -57.66317 39069 ft 553 kts 62°
2026-04-27 10:33 22.85708 -57.58842 39069 ft 552 kts 63°
2026-04-27 10:33 22.89096 -57.51368 39069 ft 553 kts 62°
2026-04-27 10:34 22.92491 -57.43869 39072 ft 556 kts 62°
2026-04-27 10:34 22.95897 -57.36334 39077 ft 556 kts 62°
2026-04-27 10:35 22.99293 -57.28808 39068 ft 555 kts 62°
2026-04-27 10:35 23.02684 -57.21281 39089 ft 555 kts 63°
2026-04-27 10:36 23.06069 -57.13754 39091 ft 555 kts 62°
2026-04-27 10:36 23.09460 -57.06206 39074 ft 557 kts 62°
2026-04-27 10:37 23.12857 -56.98630 39079 ft 558 kts 62°
2026-04-27 10:37 23.16252 -56.91048 39084 ft 558 kts 62°
2026-04-27 10:38 23.19644 -56.83461 39075 ft 558 kts 63°
2026-04-27 10:38 23.23005 -56.75931 39080 ft 557 kts 63°
2026-04-27 10:39 23.26386 -56.68343 39081 ft 559 kts 63°
2026-04-27 10:39 23.29778 -56.60720 39085 ft 560 kts 63°
2026-04-27 10:40 23.33169 -56.53086 39086 ft 560 kts 63°
2026-04-27 10:40 23.36555 -56.45452 39087 ft 560 kts 63°
2026-04-27 10:41 23.39935 -56.37819 39089 ft 559 kts 63°
2026-04-27 10:41 23.43311 -56.30181 39092 ft 561 kts 63°
2026-04-27 10:42 23.46691 -56.22522 39091 ft 561 kts 63°
2026-04-27 10:42 23.50067 -56.14862 39086 ft 561 kts 63°
2026-04-27 10:43 23.52894 -56.08437 39089 ft 561 kts 63°
2026-04-27 10:43 23.56263 -56.00767 39088 ft 561 kts 63°
2026-04-27 10:44 23.59630 -55.93093 39097 ft 561 kts 63°
2026-04-27 10:44 23.62971 -55.85463 39097 ft 561 kts 63°
2026-04-27 10:45 23.66351 -55.77732 39085 ft 561 kts 63°
2026-04-27 10:45 23.69681 -55.70103 39095 ft 560 kts 63°
2026-04-27 10:46 23.73024 -55.62431 39099 ft 560 kts 63°
2026-04-27 10:46 23.76365 -55.54750 39106 ft 561 kts 63°
2026-04-27 10:47 23.79712 -55.47046 39095 ft 562 kts 63°
2026-04-27 10:47 23.83054 -55.39337 39099 ft 561 kts 63°
2026-04-27 10:48 23.86392 -55.31627 39102 ft 561 kts 63°
2026-04-27 10:48 23.89726 -55.23912 39090 ft 561 kts 63°
2026-04-27 10:49 23.93047 -55.16214 39108 ft 560 kts 63°
2026-04-27 10:49 23.96369 -55.08500 39104 ft 561 kts 63°
2026-04-27 10:50 23.99767 -55.00811 39095 ft 560 kts 57°
2026-04-27 10:50 24.03979 -54.93690 39110 ft 557 kts 53°
2026-04-27 10:51 24.08357 -54.86709 39108 ft 556 kts 52°
2026-04-27 10:51 24.12771 -54.79754 39108 ft 557 kts 52°
2026-04-27 10:52 24.17184 -54.72772 39105 ft 557 kts 52°
2026-04-27 10:52 24.21576 -54.65786 39110 ft 556 kts 52°
2026-04-27 10:53 24.28142 -54.55308 39125 ft 556 kts 52°
2026-04-27 10:54 24.32531 -54.48296 39101 ft 558 kts 52°
2026-04-27 10:54 24.36887 -54.41325 39115 ft 557 kts 52°
2026-04-27 10:55 24.41257 -54.34320 39116 ft 556 kts 52°
2026-04-27 10:55 24.45625 -54.27310 39136 ft 556 kts 52°
2026-04-27 10:56 24.49998 -54.20281 39115 ft 558 kts 52°
2026-04-27 10:56 24.54369 -54.13247 39115 ft 557 kts 52°
2026-04-27 10:57 24.58731 -54.06215 39114 ft 557 kts 52°
2026-04-27 10:57 24.63091 -53.99178 39132 ft 557 kts 52°
2026-04-27 10:58 24.67452 -53.92129 39123 ft 558 kts 52°
2026-04-27 10:58 24.71821 -53.85058 39122 ft 559 kts 52°
2026-04-27 10:59 24.76187 -53.77979 39128 ft 559 kts 52°
2026-04-27 10:59 24.80549 -53.70896 39145 ft 559 kts 52°
2026-04-27 11:00 24.87089 -53.60255 39121 ft 560 kts 51°
2026-04-27 11:00 24.91455 -53.53143 39138 ft 560 kts 51°
2026-04-27 11:01 24.95815 -53.46028 39122 ft 560 kts 52°
2026-04-27 11:01 25.00177 -53.38899 39138 ft 561 kts 51°
2026-04-27 11:02 25.04544 -53.31753 39135 ft 562 kts 51°
2026-04-27 11:02 25.08879 -53.24646 39126 ft 562 kts 51°
2026-04-27 11:03 25.13241 -53.17484 39135 ft 562 kts 51°
2026-04-27 11:03 25.17617 -53.10286 39138 ft 561 kts 51°
2026-04-27 11:04 25.21939 -53.03171 39140 ft 562 kts 51°
2026-04-27 11:04 25.26285 -52.96004 39140 ft 562 kts 51°
2026-04-27 11:05 25.30626 -52.88833 39137 ft 561 kts 51°
2026-04-27 11:05 25.34963 -52.81659 39138 ft 561 kts 51°
2026-04-27 11:06 25.39296 -52.74482 39131 ft 561 kts 51°
2026-04-27 11:06 25.43619 -52.67310 39139 ft 560 kts 52°
2026-04-27 11:07 25.47933 -52.60140 39154 ft 560 kts 51°
2026-04-27 11:07 25.52247 -52.52959 39142 ft 561 kts 51°
2026-04-27 11:08 25.56564 -52.45764 39142 ft 561 kts 51°
2026-04-27 11:08 25.60878 -52.38562 39146 ft 561 kts 51°
2026-04-27 11:09 25.65187 -52.31357 39169 ft 561 kts 51°
2026-04-27 11:09 25.69495 -52.24146 39145 ft 562 kts 51°
2026-04-27 11:10 25.73803 -52.16921 39146 ft 562 kts 51°
2026-04-27 11:10 25.78106 -52.09691 39149 ft 562 kts 51°
2026-04-27 11:11 25.82409 -52.02451 39153 ft 562 kts 51°
2026-04-27 11:11 25.86711 -51.95202 39146 ft 562 kts 51°
2026-04-27 11:12 25.91010 -51.87947 39148 ft 562 kts 51°
2026-04-27 11:12 25.95275 -51.80737 39126 ft 562 kts 51°
2026-04-27 11:13 25.99566 -51.73474 39148 ft 562 kts 51°
2026-04-27 11:13 26.03854 -51.66203 39148 ft 563 kts 51°
2026-04-27 11:14 26.08141 -51.58922 39148 ft 563 kts 51°
2026-04-27 11:14 26.12424 -51.51636 39151 ft 562 kts 51°
2026-04-27 11:15 26.16702 -51.44348 39152 ft 563 kts 51°
2026-04-27 11:15 26.20981 -51.37047 39146 ft 563 kts 51°
2026-04-27 11:16 26.25257 -51.29739 39146 ft 563 kts 51°
2026-04-27 11:16 26.29523 -51.22435 39162 ft 562 kts 51°
2026-04-27 11:17 26.33789 -51.15122 39149 ft 563 kts 51°
2026-04-27 11:17 26.38053 -51.07799 39152 ft 563 kts 51°
2026-04-27 11:18 26.42314 -51.00469 39151 ft 563 kts 51°
2026-04-27 11:18 26.46574 -50.93130 39159 ft 564 kts 51°
2026-04-27 11:19 26.50830 -50.85784 39142 ft 564 kts 51°
2026-04-27 11:19 26.55086 -50.78428 39153 ft 563 kts 51°
2026-04-27 11:20 26.59333 -50.71075 39185 ft 563 kts 51°
2026-04-27 11:20 26.63553 -50.63758 39142 ft 565 kts 51°
2026-04-27 11:21 26.67804 -50.56375 39153 ft 564 kts 51°
2026-04-27 11:21 26.72047 -50.48990 39156 ft 564 kts 51°
2026-04-27 11:22 26.76285 -50.41601 39136 ft 565 kts 51°
2026-04-27 11:22 26.80533 -50.34188 39150 ft 566 kts 51°
2026-04-27 11:23 26.84775 -50.26772 39150 ft 566 kts 51°
2026-04-27 11:23 26.89010 -50.19354 39157 ft 566 kts 51°
2026-04-27 11:24 26.93244 -50.11926 39144 ft 565 kts 51°
2026-04-27 11:24 26.97468 -50.04504 39158 ft 565 kts 51°
2026-04-27 11:25 27.01683 -49.97071 39157 ft 565 kts 52°
2026-04-27 11:25 27.05873 -49.89616 39156 ft 565 kts 51°
2026-04-27 11:26 27.10065 -49.82133 39163 ft 566 kts 52°
2026-04-27 11:26 27.14256 -49.74643 39148 ft 566 kts 52°
2026-04-27 11:27 27.18441 -49.67156 39171 ft 566 kts 51°
2026-04-27 11:27 27.22595 -49.59711 39163 ft 567 kts 51°
2026-04-27 11:28 27.26787 -49.52189 39153 ft 568 kts 52°
2026-04-27 11:28 27.30969 -49.44670 39161 ft 567 kts 52°
2026-04-27 11:29 27.35146 -49.37145 39166 ft 567 kts 51°
2026-04-27 11:29 27.39321 -49.29614 39156 ft 568 kts 51°
2026-04-27 11:30 27.43494 -49.22074 39162 ft 568 kts 51°
2026-04-27 11:30 27.47663 -49.14524 39173 ft 567 kts 51°
2026-04-27 11:31 27.51122 -49.08251 39161 ft 567 kts 51°
2026-04-27 11:31 27.55282 -49.00698 39164 ft 567 kts 51°
2026-04-27 11:32 27.59438 -48.93136 39164 ft 568 kts 51°
2026-04-27 11:32 27.63588 -48.85573 39165 ft 567 kts 51°
2026-04-27 11:33 27.67733 -48.78004 39162 ft 567 kts 51°
2026-04-27 11:33 27.71869 -48.70441 39162 ft 567 kts 51°
2026-04-27 11:34 27.76003 -48.62866 39167 ft 566 kts 51°
2026-04-27 11:34 27.80125 -48.55300 39166 ft 565 kts 51°
2026-04-27 11:35 27.84243 -48.47730 39167 ft 566 kts 52°
2026-04-27 11:35 27.88358 -48.40152 39168 ft 566 kts 52°
2026-04-27 11:36 27.92464 -48.32576 39163 ft 565 kts 52°
2026-04-27 11:36 27.96566 -48.24993 39166 ft 565 kts 52°
2026-04-27 11:37 28.00663 -48.17408 39184 ft 565 kts 52°
2026-04-27 11:37 28.04753 -48.09821 39169 ft 564 kts 52°
2026-04-27 11:38 28.08835 -48.02235 39165 ft 564 kts 52°
2026-04-27 11:38 28.12917 -47.94637 39165 ft 564 kts 52°
2026-04-27 11:39 28.16960 -47.87097 39165 ft 563 kts 52°
2026-04-27 11:39 28.21046 -47.79462 39150 ft 563 kts 52°
2026-04-27 11:40 28.25105 -47.71867 39164 ft 563 kts 52°
2026-04-27 11:40 28.29163 -47.64260 39168 ft 564 kts 52°
2026-04-27 11:41 28.33216 -47.56647 39159 ft 564 kts 52°
2026-04-27 11:41 28.37240 -47.49075 39163 ft 564 kts 52°
2026-04-27 11:42 28.41288 -47.41444 39165 ft 563 kts 52°
2026-04-27 11:42 28.45316 -47.33833 39165 ft 562 kts 52°
2026-04-27 11:43 28.49345 -47.26214 39165 ft 563 kts 52°
2026-04-27 11:43 28.53371 -47.18584 39170 ft 562 kts 52°
2026-04-27 11:44 28.57378 -47.10972 39165 ft 561 kts 52°
2026-04-27 11:44 28.61386 -47.03350 39162 ft 561 kts 52°
2026-04-27 11:45 28.64712 -46.97013 39166 ft 561 kts 52°
2026-04-27 11:45 28.69377 -46.88106 39162 ft 560 kts 52°
2026-04-27 11:46 28.73364 -46.80481 39166 ft 560 kts 52°
2026-04-27 11:46 28.77345 -46.72852 39177 ft 560 kts 53°
2026-04-27 11:47 28.81306 -46.65243 39166 ft 557 kts 53°
2026-04-27 11:47 28.85257 -46.57645 39164 ft 557 kts 53°
2026-04-27 11:48 28.89177 -46.50096 39179 ft 557 kts 53°
2026-04-27 11:48 28.93106 -46.42509 39161 ft 554 kts 53°
2026-04-27 11:49 28.97022 -46.34934 39168 ft 554 kts 53°
2026-04-27 11:49 29.00938 -46.27349 39172 ft 554 kts 53°
2026-04-27 11:50 29.04834 -46.19784 39163 ft 551 kts 53°
2026-04-27 11:50 29.08716 -46.12236 39163 ft 551 kts 53°
2026-04-27 11:51 29.12604 -46.04665 39175 ft 552 kts 54°
2026-04-27 11:52 29.18400 -45.93341 39160 ft 549 kts 54°
2026-04-27 11:52 29.22257 -45.85794 39159 ft 549 kts 54°
2026-04-27 11:53 29.26108 -45.78245 39160 ft 547 kts 54°
2026-04-27 11:53 29.29931 -45.70730 39159 ft 546 kts 54°
2026-04-27 11:54 29.33759 -45.63199 39157 ft 547 kts 54°
2026-04-27 11:54 29.37578 -45.55670 39151 ft 544 kts 54°
2026-04-27 11:55 29.41373 -45.48170 39160 ft 544 kts 54°
2026-04-27 11:55 29.45166 -45.40663 39155 ft 544 kts 54°
2026-04-27 11:56 29.48957 -45.33146 39153 ft 545 kts 54°
2026-04-27 11:56 29.52751 -45.25611 39154 ft 545 kts 54°
2026-04-27 11:57 29.56517 -45.18115 39149 ft 545 kts 54°
2026-04-27 11:57 29.60302 -45.10569 39160 ft 545 kts 54°
2026-04-27 11:58 29.64079 -45.03021 39159 ft 544 kts 54°
2026-04-27 11:58 29.67851 -44.95472 39158 ft 544 kts 54°
2026-04-27 11:59 29.71617 -44.87919 39161 ft 544 kts 54°
2026-04-27 11:59 29.75382 -44.80356 39170 ft 544 kts 55°
2026-04-27 12:00 29.79133 -44.72803 39155 ft 542 kts 55°
2026-04-27 12:00 29.82868 -44.65271 39158 ft 542 kts 55°
2026-04-27 12:01 29.86599 -44.57734 39149 ft 541 kts 55°
2026-04-27 12:01 29.90315 -44.50210 39162 ft 540 kts 55°
2026-04-27 12:02 29.94023 -44.42691 39155 ft 540 kts 55°
2026-04-27 12:02 29.97726 -44.35167 39179 ft 539 kts 55°
2026-04-27 12:03 30.01416 -44.27652 39154 ft 537 kts 55°
2026-04-27 12:03 30.05094 -44.20149 39155 ft 537 kts 55°
2026-04-27 12:04 30.08768 -44.12641 39151 ft 537 kts 56°
2026-04-27 12:04 30.12437 -44.05130 39151 ft 537 kts 56°
2026-04-27 12:05 30.16098 -43.97619 39152 ft 536 kts 56°
2026-04-27 12:05 30.19753 -43.90107 39152 ft 536 kts 56°
2026-04-27 12:06 30.23403 -43.82590 39156 ft 536 kts 56°
2026-04-27 12:06 30.27017 -43.75132 39145 ft 535 kts 56°
2026-04-27 12:07 30.30646 -43.67630 39144 ft 534 kts 56°
2026-04-27 12:07 30.34272 -43.60120 39152 ft 534 kts 56°
2026-04-27 12:08 30.37889 -43.52615 39148 ft 533 kts 56°
2026-04-27 12:08 30.41500 -43.45107 39146 ft 533 kts 56°
2026-04-27 12:09 30.45105 -43.37597 39144 ft 533 kts 56°
2026-04-27 12:09 30.48703 -43.30087 39144 ft 533 kts 56°
2026-04-27 12:10 30.52296 -43.22573 39143 ft 533 kts 56°
2026-04-27 12:10 30.55886 -43.15051 39140 ft 533 kts 56°
2026-04-27 12:11 30.59471 -43.07524 39138 ft 533 kts 56°
2026-04-27 12:11 30.63052 -42.99991 39139 ft 533 kts 56°
2026-04-27 12:12 30.66625 -42.92460 39140 ft 532 kts 56°
2026-04-27 12:12 30.70190 -42.84932 39137 ft 532 kts 56°
2026-04-27 12:13 30.73750 -42.77399 39136 ft 531 kts 56°
2026-04-27 12:13 30.77304 -42.69864 39135 ft 531 kts 56°
2026-04-27 12:14 30.80848 -42.62335 39135 ft 531 kts 56°
2026-04-27 12:14 30.84389 -42.54799 39132 ft 530 kts 56°
2026-04-27 12:15 30.87922 -42.47266 39132 ft 530 kts 56°
2026-04-27 12:15 30.91450 -42.39727 39140 ft 530 kts 57°
2026-04-27 12:16 30.94973 -42.32184 39131 ft 530 kts 57°
2026-04-27 12:16 30.98491 -42.24636 39130 ft 530 kts 57°
2026-04-27 12:17 31.01980 -42.17138 39130 ft 530 kts 57°
2026-04-27 12:17 31.05487 -42.09583 39127 ft 530 kts 57°
2026-04-27 12:18 31.08989 -42.02025 39130 ft 530 kts 57°
2026-04-27 12:18 31.12486 -41.94463 39132 ft 529 kts 57°
2026-04-27 12:19 31.15979 -41.86895 39127 ft 529 kts 57°
2026-04-27 12:19 31.18901 -41.80552 39123 ft 529 kts 57°
2026-04-27 12:20 31.22385 -41.72975 39126 ft 529 kts 57°
2026-04-27 12:20 31.25863 -41.65396 39124 ft 529 kts 57°
2026-04-27 12:21 31.29312 -41.57865 39118 ft 529 kts 57°
2026-04-27 12:21 31.32778 -41.50280 39120 ft 529 kts 57°
2026-04-27 12:22 31.36241 -41.42690 39121 ft 528 kts 57°
2026-04-27 12:22 31.39695 -41.35101 39120 ft 528 kts 57°
2026-04-27 12:23 31.43144 -41.27508 39122 ft 528 kts 57°
2026-04-27 12:23 31.46590 -41.19907 39136 ft 528 kts 57°
2026-04-27 12:24 31.50024 -41.12317 39111 ft 527 kts 57°
2026-04-27 12:24 31.53450 -41.04729 39111 ft 527 kts 57°
2026-04-27 12:25 31.56872 -40.97135 39113 ft 527 kts 57°
2026-04-27 12:25 31.60288 -40.89538 39115 ft 526 kts 57°
2026-04-27 12:26 31.63694 -40.81948 39114 ft 525 kts 57°
2026-04-27 12:26 31.67094 -40.74357 39110 ft 525 kts 58°
2026-04-27 12:27 31.70487 -40.66765 39114 ft 525 kts 58°
2026-04-27 12:27 31.73870 -40.59179 39109 ft 523 kts 58°
2026-04-27 12:28 31.77219 -40.51654 39111 ft 523 kts 58°
2026-04-27 12:28 31.80586 -40.44073 39104 ft 523 kts 58°
2026-04-27 12:29 31.83944 -40.36499 39108 ft 522 kts 58°
2026-04-27 12:29 31.87295 -40.28922 39108 ft 522 kts 58°
2026-04-27 12:30 31.90648 -40.21328 39105 ft 523 kts 58°
2026-04-27 12:30 31.93997 -40.13725 39104 ft 523 kts 58°
2026-04-27 12:31 31.97341 -40.06117 39102 ft 523 kts 58°
2026-04-27 12:31 32.00688 -39.98523 39102 ft 521 kts 58°
2026-04-27 12:32 32.04116 -39.91015 39099 ft 519 kts 57°
2026-04-27 12:32 32.07570 -39.83538 39097 ft 519 kts 57°
2026-04-27 12:33 32.11014 -39.76051 39106 ft 518 kts 58°
2026-04-27 12:33 32.14433 -39.68576 39097 ft 517 kts 58°
2026-04-27 12:34 32.17843 -39.61100 39097 ft 517 kts 58°
2026-04-27 12:34 32.21245 -39.53622 39096 ft 517 kts 58°
2026-04-27 12:35 32.24641 -39.46145 39093 ft 516 kts 58°
2026-04-27 12:35 32.28030 -39.38667 39096 ft 516 kts 58°
2026-04-27 12:36 32.31416 -39.31182 39098 ft 516 kts 58°
2026-04-27 12:36 32.34790 -39.23706 39091 ft 515 kts 58°
2026-04-27 12:37 32.38139 -39.16273 39092 ft 515 kts 58°
2026-04-27 12:37 32.41505 -39.08785 39096 ft 515 kts 58°
2026-04-27 12:38 32.44861 -39.01304 39093 ft 514 kts 58°
2026-04-27 12:38 32.48211 -38.93821 39094 ft 514 kts 58°
2026-04-27 12:39 32.51559 -38.86328 39087 ft 514 kts 58°
2026-04-27 12:39 32.54900 -38.78835 39091 ft 514 kts 59°
2026-04-27 12:40 32.58237 -38.71333 39088 ft 514 kts 59°
2026-04-27 12:40 32.61571 -38.63824 39088 ft 514 kts 59°
2026-04-27 12:41 32.64898 -38.56315 39091 ft 514 kts 59°
2026-04-27 12:41 32.68222 -38.48797 39089 ft 514 kts 59°
2026-04-27 12:42 32.71539 -38.41280 39083 ft 514 kts 59°
2026-04-27 12:42 32.74849 -38.33762 39094 ft 513 kts 59°
2026-04-27 12:43 32.78153 -38.26242 39086 ft 513 kts 59°
2026-04-27 12:43 32.81450 -38.18723 39089 ft 513 kts 59°
2026-04-27 12:44 32.84744 -38.11195 39083 ft 513 kts 59°
2026-04-27 12:44 32.88032 -38.03662 39080 ft 513 kts 59°
2026-04-27 12:45 32.91315 -37.96127 39083 ft 513 kts 59°
2026-04-27 12:45 32.94594 -37.88585 39081 ft 512 kts 59°
2026-04-27 12:46 32.97839 -37.81104 39080 ft 512 kts 59°
2026-04-27 12:46 33.01102 -37.73568 39078 ft 512 kts 59°
2026-04-27 12:47 33.04359 -37.66028 39072 ft 511 kts 60°
2026-04-27 12:47 33.07607 -37.58493 39072 ft 511 kts 60°
2026-04-27 12:48 33.10849 -37.50958 39075 ft 511 kts 60°
2026-04-27 12:48 33.14084 -37.43420 39078 ft 510 kts 60°
2026-04-27 12:49 33.17312 -37.35884 39077 ft 510 kts 60°
2026-04-27 12:49 33.20533 -37.28347 39073 ft 510 kts 60°
2026-04-27 12:50 33.23751 -37.20802 39073 ft 510 kts 60°
2026-04-27 12:50 33.26960 -37.13261 39070 ft 509 kts 60°
2026-04-27 12:51 33.30164 -37.05717 39067 ft 509 kts 60°
2026-04-27 12:51 33.33362 -36.98171 39066 ft 509 kts 60°
2026-04-27 12:52 33.36531 -36.90676 39064 ft 508 kts 60°
2026-04-27 12:52 33.39714 -36.83131 39062 ft 508 kts 60°
2026-04-27 12:53 33.44479 -36.71808 39065 ft 508 kts 60°
2026-04-27 12:53 33.47650 -36.64252 39061 ft 507 kts 60°
2026-04-27 12:54 33.50814 -36.56695 39063 ft 507 kts 60°
2026-04-27 12:54 33.53973 -36.49134 39059 ft 507 kts 60°
2026-04-27 12:55 33.57128 -36.41566 39057 ft 507 kts 60°
2026-04-27 12:55 33.60278 -36.33994 39056 ft 507 kts 60°
2026-04-27 12:56 33.63424 -36.26414 39056 ft 508 kts 60°
2026-04-27 12:56 33.66567 -36.18826 39059 ft 507 kts 61°
2026-04-27 12:57 33.69701 -36.11241 39057 ft 507 kts 61°
2026-04-27 12:57 33.72809 -36.03704 39055 ft 507 kts 61°
2026-04-27 12:58 33.75935 -35.96105 39057 ft 507 kts 61°
2026-04-27 12:58 33.79054 -35.88508 39054 ft 507 kts 61°
2026-04-27 12:59 33.82167 -35.80907 39050 ft 507 kts 61°
2026-04-27 12:59 33.85276 -35.73299 39052 ft 507 kts 61°
2026-04-27 13:00 33.88380 -35.65687 39048 ft 507 kts 61°
2026-04-27 13:00 33.91483 -35.58063 39055 ft 507 kts 61°
2026-04-27 13:01 33.94586 -35.50420 39048 ft 509 kts 61°
2026-04-27 13:01 33.97687 -35.42763 39045 ft 508 kts 61°
2026-04-27 13:02 34.00782 -35.35103 39045 ft 508 kts 61°
2026-04-27 13:02 34.03873 -35.27437 39044 ft 508 kts 61°
2026-04-27 13:03 34.06958 -35.19769 39045 ft 508 kts 62°
2026-04-27 13:03 34.10017 -35.12148 39047 ft 508 kts 62°
2026-04-27 13:04 34.13090 -35.04475 39048 ft 508 kts 62°
2026-04-27 13:04 34.16181 -34.96739 39042 ft 508 kts 62°
2026-04-27 13:05 34.19218 -34.89120 39045 ft 507 kts 62°
2026-04-27 13:05 34.22271 -34.81444 39045 ft 507 kts 62°
2026-04-27 13:06 34.25318 -34.73767 39045 ft 507 kts 62°
2026-04-27 13:06 34.28359 -34.66084 39046 ft 506 kts 62°
2026-04-27 13:07 34.31392 -34.58408 39047 ft 505 kts 62°
2026-04-27 13:07 34.34416 -34.50734 39050 ft 505 kts 62°
2026-04-27 13:08 34.37434 -34.43057 39048 ft 505 kts 62°
2026-04-27 13:08 34.40447 -34.35378 39045 ft 505 kts 62°
2026-04-27 13:09 34.42945 -34.28995 39047 ft 504 kts 62°
2026-04-27 13:09 34.45946 -34.21313 39048 ft 505 kts 62°
2026-04-27 13:10 34.48942 -34.13625 39047 ft 504 kts 62°
2026-04-27 13:10 34.51927 -34.05948 39050 ft 504 kts 62°
2026-04-27 13:11 34.54910 -33.98258 39050 ft 504 kts 62°
2026-04-27 13:11 34.57888 -33.90565 39051 ft 504 kts 63°
2026-04-27 13:12 34.60862 -33.82861 39053 ft 504 kts 63°
2026-04-27 13:12 34.63831 -33.75153 39053 ft 504 kts 63°
2026-04-27 13:13 34.66795 -33.67439 39054 ft 504 kts 63°
2026-04-27 13:13 34.69732 -33.59780 39056 ft 503 kts 63°
2026-04-27 13:14 34.72682 -33.52067 39058 ft 503 kts 63°
2026-04-27 13:14 34.75626 -33.44351 39058 ft 503 kts 63°
2026-04-27 13:15 34.78567 -33.36627 39062 ft 503 kts 63°
2026-04-27 13:15 34.81524 -33.28839 39061 ft 504 kts 63°
2026-04-27 13:16 34.84437 -33.21152 39062 ft 503 kts 63°
2026-04-27 13:16 34.87364 -33.13408 39066 ft 504 kts 63°
2026-04-27 13:17 34.90290 -33.05649 39062 ft 504 kts 63°
2026-04-27 13:17 34.93212 -32.97881 39067 ft 504 kts 63°
2026-04-27 13:18 34.96130 -32.90105 39067 ft 505 kts 63°
2026-04-27 13:18 34.99045 -32.82318 39072 ft 505 kts 63°
2026-04-27 13:19 35.01955 -32.74526 39070 ft 505 kts 63°
2026-04-27 13:19 35.04860 -32.66727 39072 ft 505 kts 63°
2026-04-27 13:20 35.07762 -32.58920 39077 ft 506 kts 63°
2026-04-27 13:20 35.10663 -32.51095 39075 ft 506 kts 63°
2026-04-27 13:21 35.13563 -32.43255 39078 ft 506 kts 63°
2026-04-27 13:21 35.16436 -32.35466 39080 ft 506 kts 63°
2026-04-27 13:22 35.19342 -32.27569 39083 ft 506 kts 63°
2026-04-27 13:22 35.22204 -32.19774 39083 ft 506 kts 63°
2026-04-27 13:23 35.25079 -32.11922 39086 ft 506 kts 63°
2026-04-27 13:23 35.27949 -32.04067 39086 ft 506 kts 63°
2026-04-27 13:24 35.30814 -31.96204 39086 ft 506 kts 63°
2026-04-27 13:24 35.33675 -31.88335 39086 ft 506 kts 63°
2026-04-27 13:25 35.36529 -31.80463 39092 ft 506 kts 63°
2026-04-27 13:25 35.39379 -31.72583 39094 ft 506 kts 63°
2026-04-27 13:26 35.42225 -31.64694 39091 ft 506 kts 63°
2026-04-27 13:26 35.45066 -31.56801 39097 ft 506 kts 63°
2026-04-27 13:27 35.47903 -31.48898 39097 ft 506 kts 63°
2026-04-27 13:27 35.50737 -31.40981 39099 ft 506 kts 63°
2026-04-27 13:28 35.53565 -31.33064 39099 ft 506 kts 64°
2026-04-27 13:28 35.56387 -31.25144 39099 ft 506 kts 64°
2026-04-27 13:29 35.59205 -31.17213 39103 ft 506 kts 64°
2026-04-27 13:29 35.62017 -31.09278 39102 ft 506 kts 64°
2026-04-27 13:30 35.64805 -31.01392 39102 ft 506 kts 64°
2026-04-27 13:30 35.67606 -30.93450 39107 ft 506 kts 64°
2026-04-27 13:31 35.70404 -30.85497 39105 ft 506 kts 64°
2026-04-27 13:31 35.73195 -30.77542 39107 ft 507 kts 64°
2026-04-27 13:32 35.75982 -30.69576 39107 ft 507 kts 64°
2026-04-27 13:32 35.78763 -30.61608 39110 ft 506 kts 64°
2026-04-27 13:33 35.81540 -30.53632 39113 ft 506 kts 64°
2026-04-27 13:33 35.84311 -30.45654 39117 ft 506 kts 64°
2026-04-27 13:34 35.87076 -30.37670 39115 ft 507 kts 64°
2026-04-27 13:34 35.89838 -30.29674 39115 ft 507 kts 64°
2026-04-27 13:35 35.92596 -30.21668 39118 ft 507 kts 64°
2026-04-27 13:35 35.95348 -30.13659 39121 ft 507 kts 64°
2026-04-27 13:36 35.98078 -30.05694 39121 ft 507 kts 64°
2026-04-27 13:36 36.00834 -29.97676 39124 ft 507 kts 64°
2026-04-27 13:37 36.03658 -29.89689 39124 ft 507 kts 63°
2026-04-27 13:37 36.06495 -29.81709 39129 ft 507 kts 63°
2026-04-27 13:38 36.09322 -29.73723 39126 ft 507 kts 64°
2026-04-27 13:38 36.12135 -29.65734 39129 ft 507 kts 64°
2026-04-27 13:39 36.14941 -29.57738 39132 ft 507 kts 64°
2026-04-27 13:39 36.17747 -29.49722 39130 ft 508 kts 64°
2026-04-27 13:40 36.20552 -29.41688 39132 ft 508 kts 64°
2026-04-27 13:40 36.23349 -29.33654 39138 ft 508 kts 64°
2026-04-27 13:41 36.26141 -29.25612 39138 ft 508 kts 64°
2026-04-27 13:41 36.28925 -29.17577 39137 ft 507 kts 64°
2026-04-27 13:42 36.31701 -29.09540 39141 ft 507 kts 64°
2026-04-27 13:42 36.34471 -29.01502 39141 ft 507 kts 64°
2026-04-27 13:43 36.37235 -28.93457 39141 ft 507 kts 64°
2026-04-27 13:43 36.39990 -28.85418 39143 ft 506 kts 64°
2026-04-27 13:44 36.42734 -28.77389 39146 ft 505 kts 64°
2026-04-27 13:44 36.45475 -28.69351 39146 ft 505 kts 64°
2026-04-27 13:45 36.48190 -28.61365 39148 ft 504 kts 64°
2026-04-27 13:45 36.50910 -28.53342 39151 ft 503 kts 64°
2026-04-27 13:46 36.53624 -28.45317 39151 ft 503 kts 64°
2026-04-27 13:46 36.56332 -28.37288 39154 ft 503 kts 64°
2026-04-27 13:47 36.59034 -28.29255 39153 ft 503 kts 64°
2026-04-27 13:47 36.61732 -28.21212 39154 ft 503 kts 64°
2026-04-27 13:48 36.64425 -28.13162 39154 ft 504 kts 64°
2026-04-27 13:48 36.67112 -28.05109 39157 ft 503 kts 64°
2026-04-27 13:49 36.69788 -27.97065 39156 ft 502 kts 64°
2026-04-27 13:49 36.72456 -27.89027 39159 ft 502 kts 64°
2026-04-27 13:50 36.75117 -27.80984 39165 ft 502 kts 65°
2026-04-27 13:50 36.77775 -27.72932 39166 ft 502 kts 65°
2026-04-27 13:51 36.80422 -27.64888 39165 ft 501 kts 65°
2026-04-27 13:51 36.83062 -27.56845 39165 ft 501 kts 65°
2026-04-27 13:52 36.85698 -27.48792 39168 ft 501 kts 65°
2026-04-27 13:52 36.88328 -27.40736 39170 ft 501 kts 65°
2026-04-27 13:53 36.92261 -27.28645 39170 ft 501 kts 65°
2026-04-27 13:54 36.94875 -27.20581 39173 ft 501 kts 65°
2026-04-27 13:54 36.97484 -27.12511 39172 ft 500 kts 65°
2026-04-27 13:55 37.00079 -27.04458 39178 ft 499 kts 65°
2026-04-27 13:55 37.02668 -26.96405 39181 ft 499 kts 65°
2026-04-27 13:56 37.05252 -26.88346 39181 ft 499 kts 65°
2026-04-27 13:56 37.07827 -26.80292 39183 ft 497 kts 65°
2026-04-27 13:57 37.10392 -26.72245 39184 ft 498 kts 65°
2026-04-27 13:57 37.12954 -26.64190 39183 ft 498 kts 65°
2026-04-27 13:58 37.15080 -26.57485 39168 ft 498 kts 65°
2026-04-27 13:58 37.17630 -26.49421 39195 ft 496 kts 65°
2026-04-27 13:59 37.20164 -26.41383 39183 ft 495 kts 65°
2026-04-27 13:59 37.22694 -26.33341 39199 ft 495 kts 65°
2026-04-27 14:00 37.25218 -26.25295 39207 ft 495 kts 65°
2026-04-27 14:00 37.27731 -26.17258 39195 ft 494 kts 66°
2026-04-27 14:01 37.30233 -26.09232 39199 ft 494 kts 66°
2026-04-27 14:01 37.32732 -26.01200 39212 ft 494 kts 66°
2026-04-27 14:02 37.35224 -25.93162 39215 ft 493 kts 66°
2026-04-27 14:02 37.37706 -25.85135 39216 ft 492 kts 66°
2026-04-27 14:03 37.40179 -25.77114 39216 ft 492 kts 66°
2026-04-27 14:03 37.42646 -25.69091 39218 ft 492 kts 66°
2026-04-27 14:04 37.45107 -25.61061 39222 ft 491 kts 66°
2026-04-27 14:04 37.47557 -25.53047 39213 ft 490 kts 66°
2026-04-27 14:05 37.49998 -25.45038 39211 ft 490 kts 66°
2026-04-27 14:05 37.52434 -25.37024 39227 ft 490 kts 66°
2026-04-27 14:06 37.54847 -25.29061 39218 ft 490 kts 66°
2026-04-27 14:06 37.57272 -25.21039 39226 ft 490 kts 66°
2026-04-27 14:07 37.59692 -25.13007 39224 ft 490 kts 66°
2026-04-27 14:07 37.62106 -25.04973 39218 ft 490 kts 66°
2026-04-27 14:08 37.64513 -24.96936 39235 ft 489 kts 66°
2026-04-27 14:08 37.66906 -24.88924 39222 ft 488 kts 66°
2026-04-27 14:09 37.69292 -24.80912 39222 ft 487 kts 66°
2026-04-27 14:09 37.71672 -24.72899 39219 ft 488 kts 67°
2026-04-27 14:10 37.74046 -24.64883 39232 ft 486 kts 67°
2026-04-27 14:10 37.76406 -24.56888 39225 ft 485 kts 67°
2026-04-27 14:11 37.78758 -24.48899 39236 ft 485 kts 67°
2026-04-27 14:11 37.81104 -24.40906 39231 ft 485 kts 67°
2026-04-27 14:12 37.83443 -24.32913 39232 ft 484 kts 67°
2026-04-27 14:12 37.85771 -24.24933 39234 ft 483 kts 67°
2026-04-27 14:13 37.88076 -24.17014 39236 ft 483 kts 67°
2026-04-27 14:13 37.90390 -24.09035 39237 ft 483 kts 67°
2026-04-27 14:14 37.92699 -24.01054 39238 ft 482 kts 67°
2026-04-27 14:14 37.94994 -23.93092 39242 ft 481 kts 68°
2026-04-27 14:15 37.97283 -23.85133 39246 ft 481 kts 68°
2026-04-27 14:15 37.99568 -23.77162 39240 ft 481 kts 68°
2026-04-27 14:16 38.01845 -23.69196 39243 ft 480 kts 68°
2026-04-27 14:16 38.04108 -23.61250 39245 ft 479 kts 68°
2026-04-27 14:17 38.06366 -23.53304 39248 ft 479 kts 68°
2026-04-27 14:17 38.08618 -23.45354 39242 ft 479 kts 68°
2026-04-27 14:18 38.10863 -23.37406 39247 ft 478 kts 68°
2026-04-27 14:18 38.13097 -23.29471 39245 ft 477 kts 68°
2026-04-27 14:19 38.15322 -23.21544 39250 ft 477 kts 68°
2026-04-27 14:19 38.17544 -23.13607 39245 ft 477 kts 68°
2026-04-27 14:20 38.19759 -23.05668 39253 ft 476 kts 68°
2026-04-27 14:20 38.21964 -22.97742 39246 ft 475 kts 68°
2026-04-27 14:21 38.24146 -22.89873 39251 ft 475 kts 68°
2026-04-27 14:21 38.26340 -22.81941 39255 ft 475 kts 68°
2026-04-27 14:22 38.28527 -22.74008 39252 ft 474 kts 68°
2026-04-27 14:22 38.30699 -22.66101 39249 ft 472 kts 68°
2026-04-27 14:23 38.32864 -22.58203 39252 ft 472 kts 68°
2026-04-27 14:23 38.35023 -22.50298 39251 ft 472 kts 68°
2026-04-27 14:24 38.37177 -22.42390 39253 ft 472 kts 68°
2026-04-27 14:24 38.39322 -22.34489 39251 ft 472 kts 68°
2026-04-27 14:25 38.41462 -22.26585 39252 ft 472 kts 68°
2026-04-27 14:25 38.43597 -22.18672 39251 ft 472 kts 68°
2026-04-27 14:26 38.45726 -22.10759 39252 ft 472 kts 68°
2026-04-27 14:26 38.47849 -22.02841 39251 ft 472 kts 68°
2026-04-27 14:27 38.49967 -21.94919 39253 ft 472 kts 68°
2026-04-27 14:27 38.52082 -21.86986 39251 ft 472 kts 68°
2026-04-27 14:28 38.54191 -21.79049 39264 ft 472 kts 68°
2026-04-27 14:28 38.56284 -21.71139 39250 ft 469 kts 68°
2026-04-27 14:29 38.58367 -21.63251 39254 ft 468 kts 68°
2026-04-27 14:29 38.60431 -21.55413 39257 ft 468 kts 68°
2026-04-27 14:30 38.62503 -21.47517 39255 ft 468 kts 68°
2026-04-27 14:30 38.64565 -21.39631 39247 ft 466 kts 68°
2026-04-27 14:31 38.66609 -21.31788 39247 ft 464 kts 68°
2026-04-27 14:31 38.68648 -21.23947 39259 ft 464 kts 68°
2026-04-27 14:32 38.70682 -21.16101 39256 ft 464 kts 68°
2026-04-27 14:32 38.72708 -21.08256 39256 ft 463 kts 68°
2026-04-27 14:33 38.74724 -21.00425 39255 ft 463 kts 68°
2026-04-27 14:33 38.76734 -20.92595 39254 ft 463 kts 68°
2026-04-27 14:34 38.78739 -20.84759 39253 ft 463 kts 68°
2026-04-27 14:34 38.80738 -20.76923 39257 ft 463 kts 68°
2026-04-27 14:35 38.82732 -20.69079 39252 ft 462 kts 68°
2026-04-27 14:35 38.84706 -20.61289 39251 ft 462 kts 68°
2026-04-27 14:36 38.86690 -20.53439 39249 ft 462 kts 68°
2026-04-27 14:36 38.88667 -20.45587 39260 ft 462 kts 69°
2026-04-27 14:37 38.90641 -20.37724 39251 ft 463 kts 69°
2026-04-27 14:37 38.92612 -20.29846 39253 ft 463 kts 69°
2026-04-27 14:38 38.94578 -20.21963 39248 ft 463 kts 69°
2026-04-27 14:38 38.96539 -20.14073 39248 ft 464 kts 69°
2026-04-27 14:39 38.98497 -20.06173 39249 ft 465 kts 69°
2026-04-27 14:39 39.00436 -19.98242 39248 ft 465 kts 70°
2026-04-27 14:40 39.02246 -19.90249 39244 ft 466 kts 71°
2026-04-27 14:40 39.04012 -19.82230 39247 ft 466 kts 71°
2026-04-27 14:41 39.05780 -19.74213 39249 ft 466 kts 72°
2026-04-27 14:41 39.07552 -19.66198 39248 ft 466 kts 72°
2026-04-27 14:42 39.09323 -19.58174 39249 ft 466 kts 72°
2026-04-27 14:42 39.11088 -19.50153 39246 ft 466 kts 72°
2026-04-27 14:43 39.12837 -19.42176 39248 ft 466 kts 72°
2026-04-27 14:43 39.14590 -19.34147 39246 ft 465 kts 72°
2026-04-27 14:44 39.16336 -19.26121 39246 ft 465 kts 72°
2026-04-27 14:44 39.18078 -19.18086 39246 ft 465 kts 72°
2026-04-27 14:45 39.19813 -19.10052 39253 ft 465 kts 72°
2026-04-27 14:45 39.21545 -19.02003 39247 ft 466 kts 72°
2026-04-27 14:46 39.23272 -18.93946 39246 ft 466 kts 72°
2026-04-27 14:46 39.24993 -18.85891 39247 ft 466 kts 72°
2026-04-27 14:47 39.26709 -18.77827 39244 ft 466 kts 72°
2026-04-27 14:47 39.28419 -18.69760 39243 ft 466 kts 72°
2026-04-27 14:48 39.29836 -18.63053 39244 ft 466 kts 73°
2026-04-27 14:48 39.32383 -18.50944 39243 ft 466 kts 73°
2026-04-27 14:49 39.34075 -18.42865 39249 ft 466 kts 73°
2026-04-27 14:49 39.35764 -18.34767 39244 ft 467 kts 73°
2026-04-27 14:50 39.37448 -18.26663 39246 ft 467 kts 73°
2026-04-27 14:50 39.39128 -18.18545 39247 ft 467 kts 73°
2026-04-27 14:51 39.40802 -18.10427 39243 ft 467 kts 73°
2026-04-27 14:51 39.42470 -18.02301 39243 ft 468 kts 73°
2026-04-27 14:52 39.44136 -17.94162 39243 ft 468 kts 73°
2026-04-27 14:52 39.45794 -17.86024 39238 ft 468 kts 74°
2026-04-27 14:53 39.47448 -17.77879 39239 ft 468 kts 74°
2026-04-27 14:53 39.49085 -17.69783 39239 ft 468 kts 74°
2026-04-27 14:54 39.50731 -17.61613 39239 ft 469 kts 74°
2026-04-27 14:54 39.52372 -17.53436 39238 ft 469 kts 74°
2026-04-27 14:55 39.54006 -17.45257 39238 ft 469 kts 74°
2026-04-27 14:55 39.55635 -17.37071 39239 ft 469 kts 75°
2026-04-27 14:56 39.57260 -17.28872 39237 ft 470 kts 74°
2026-04-27 14:56 39.58881 -17.20664 39238 ft 470 kts 74°
2026-04-27 14:57 39.60497 -17.12451 39238 ft 470 kts 75°
2026-04-27 14:57 39.62106 -17.04234 39238 ft 470 kts 75°
2026-04-27 14:58 39.63714 -16.95995 39234 ft 472 kts 75°
2026-04-27 14:58 39.65320 -16.87727 39232 ft 473 kts 75°
2026-04-27 14:59 39.66921 -16.79451 39232 ft 472 kts 75°
2026-04-27 14:59 39.68513 -16.71185 39231 ft 472 kts 75°
2026-04-27 15:00 39.70102 -16.62902 39234 ft 473 kts 76°
2026-04-27 15:00 39.71677 -16.54663 39231 ft 473 kts 76°
2026-04-27 15:01 39.73255 -16.46368 39229 ft 473 kts 75°
2026-04-27 15:01 39.74829 -16.38060 39233 ft 474 kts 75°
2026-04-27 15:02 39.76400 -16.29740 39231 ft 474 kts 76°
2026-04-27 15:02 39.77963 -16.21417 39232 ft 474 kts 76°
2026-04-27 15:03 39.79521 -16.13087 39230 ft 474 kts 76°
2026-04-27 15:03 39.81074 -16.04752 39227 ft 474 kts 76°
2026-04-27 15:04 39.82620 -15.96413 39225 ft 474 kts 77°
2026-04-27 15:04 39.84162 -15.88063 39223 ft 475 kts 77°
2026-04-27 15:05 39.85701 -15.79697 39223 ft 475 kts 77°
2026-04-27 15:05 39.87233 -15.71331 39226 ft 475 kts 77°
2026-04-27 15:06 39.88759 -15.62960 39226 ft 475 kts 77°
2026-04-27 15:06 39.90278 -15.54586 39220 ft 475 kts 77°
2026-04-27 15:07 39.91793 -15.46202 39218 ft 475 kts 77°
2026-04-27 15:07 39.93302 -15.37817 39214 ft 475 kts 77°
2026-04-27 15:08 39.94803 -15.29430 39215 ft 475 kts 77°
2026-04-27 15:08 39.96300 -15.21035 39212 ft 475 kts 77°
2026-04-27 15:09 39.97790 -15.12639 39217 ft 475 kts 77°
2026-04-27 15:09 39.99274 -15.04242 39216 ft 475 kts 77°
2026-04-27 15:10 40.00825 -14.95920 39212 ft 475 kts 75°
2026-04-27 15:10 40.02583 -14.87608 39212 ft 475 kts 75°
2026-04-27 15:11 40.04373 -14.79290 39209 ft 476 kts 75°
2026-04-27 15:11 40.06139 -14.70962 39207 ft 476 kts 75°
2026-04-27 15:12 40.07882 -14.62631 39204 ft 476 kts 75°
2026-04-27 15:12 40.09616 -14.54285 39200 ft 476 kts 75°
2026-04-27 15:13 40.11345 -14.45936 39197 ft 476 kts 75°
2026-04-27 15:13 40.13066 -14.37592 39199 ft 476 kts 75°
2026-04-27 15:14 40.14783 -14.29237 39198 ft 476 kts 75°
2026-04-27 15:14 40.16494 -14.20878 39195 ft 476 kts 76°
2026-04-27 15:15 40.18200 -14.12513 39192 ft 476 kts 76°
2026-04-27 15:15 40.19902 -14.04132 39192 ft 477 kts 75°
2026-04-27 15:16 40.21597 -13.95749 39190 ft 477 kts 75°
2026-04-27 15:16 40.23285 -13.87366 39191 ft 476 kts 75°
2026-04-27 15:17 40.24968 -13.78975 39189 ft 477 kts 76°
2026-04-27 15:17 40.26645 -13.70583 39183 ft 476 kts 76°
2026-04-27 15:18 40.28304 -13.62243 39180 ft 477 kts 76°
2026-04-27 15:18 40.29971 -13.53831 39184 ft 477 kts 76°
2026-04-27 15:19 40.31632 -13.45415 39179 ft 477 kts 76°
2026-04-27 15:19 40.33286 -13.37003 39174 ft 477 kts 76°
2026-04-27 15:20 40.34935 -13.28576 39177 ft 477 kts 76°
2026-04-27 15:20 40.36577 -13.20148 39175 ft 477 kts 76°
2026-04-27 15:21 40.38211 -13.11718 39170 ft 477 kts 77°
2026-04-27 15:21 40.39842 -13.03276 39171 ft 479 kts 77°
2026-04-27 15:22 40.41471 -12.94809 39166 ft 479 kts 77°
2026-04-27 15:22 40.43094 -12.86335 39162 ft 479 kts 77°
2026-04-27 15:23 40.44712 -12.77860 39158 ft 479 kts 77°
2026-04-27 15:23 40.46324 -12.69366 39156 ft 480 kts 76°
2026-04-27 15:24 40.47929 -12.60870 39147 ft 479 kts 77°
2026-04-27 15:24 40.49529 -12.52370 39159 ft 480 kts 77°
2026-04-27 15:25 40.51124 -12.43867 39152 ft 480 kts 77°
2026-04-27 15:25 40.52712 -12.35360 39155 ft 480 kts 77°
2026-04-27 15:26 40.54294 -12.26844 39146 ft 480 kts 77°
2026-04-27 15:26 40.55862 -12.18369 39143 ft 480 kts 77°
2026-04-27 15:27 40.57433 -12.09840 39136 ft 480 kts 77°
2026-04-27 15:27 40.58998 -12.01306 39133 ft 481 kts 77°
2026-04-27 15:28 40.60560 -11.92742 39138 ft 482 kts 77°
2026-04-27 15:28 40.62117 -11.84179 39130 ft 481 kts 77°
2026-04-27 15:29 40.63668 -11.75612 39132 ft 481 kts 77°
2026-04-27 15:29 40.65211 -11.67037 39128 ft 482 kts 77°
2026-04-27 15:30 40.66747 -11.58463 39116 ft 481 kts 77°
2026-04-27 15:30 40.68276 -11.49892 39122 ft 481 kts 77°
2026-04-27 15:31 40.69800 -11.41307 39125 ft 482 kts 77°
2026-04-27 15:31 40.71319 -11.32723 39120 ft 481 kts 78°
2026-04-27 15:32 40.72831 -11.24129 39118 ft 482 kts 77°
2026-04-27 15:32 40.74341 -11.15499 39110 ft 484 kts 77°
2026-04-27 15:33 40.75845 -11.06865 39110 ft 483 kts 78°
2026-04-27 15:33 40.77344 -10.98229 39112 ft 483 kts 78°
2026-04-27 15:34 40.78836 -10.89587 39109 ft 483 kts 77°
2026-04-27 15:34 40.80321 -10.80954 39099 ft 482 kts 78°
2026-04-27 15:35 40.81798 -10.72319 39105 ft 483 kts 78°
2026-04-27 15:35 40.83268 -10.63675 39096 ft 483 kts 78°
2026-04-27 15:36 40.84735 -10.55016 39087 ft 483 kts 78°
2026-04-27 15:36 40.86183 -10.46424 39091 ft 482 kts 78°
2026-04-27 15:37 40.87633 -10.37783 39085 ft 482 kts 78°
2026-04-27 15:37 40.89077 -10.29133 39091 ft 482 kts 78°
2026-04-27 15:38 40.90282 -10.21877 39084 ft 483 kts 78°
2026-04-27 15:38 40.91715 -10.13215 39085 ft 482 kts 78°
2026-04-27 15:39 40.93131 -10.04614 39076 ft 482 kts 78°
2026-04-27 15:39 40.94550 -9.95948 39076 ft 482 kts 78°
2026-04-27 15:40 40.95961 -9.87283 39071 ft 482 kts 78°
2026-04-27 15:40 40.97366 -9.78618 39067 ft 482 kts 78°
2026-04-27 15:41 40.98764 -9.69949 39069 ft 481 kts 78°
2026-04-27 15:41 41.00155 -9.61285 39064 ft 481 kts 78°
2026-04-27 15:42 41.01540 -9.52612 39061 ft 481 kts 78°
2026-04-27 15:42 41.02918 -9.43935 39057 ft 482 kts 78°
2026-04-27 15:43 41.04292 -9.35238 39052 ft 483 kts 78°
2026-04-27 15:43 41.05661 -9.26532 39052 ft 483 kts 78°
2026-04-27 15:44 41.07024 -9.17819 39052 ft 483 kts 79°
2026-04-27 15:44 41.08380 -9.09103 39050 ft 483 kts 79°
2026-04-27 15:45 41.09730 -9.00380 39039 ft 483 kts 79°
2026-04-27 15:45 41.11075 -8.91645 39032 ft 484 kts 79°
2026-04-27 15:46 41.12414 -8.82906 39026 ft 484 kts 79°
2026-04-27 15:46 41.13746 -8.74160 39022 ft 484 kts 79°
2026-04-27 15:47 41.15072 -8.65411 39021 ft 484 kts 79°
2026-04-27 15:47 41.16392 -8.56650 39023 ft 484 kts 79°
2026-04-27 15:48 41.17705 -8.47891 39026 ft 484 kts 79°
2026-04-27 15:49 41.19653 -8.34803 39042 ft 484 kts 79°
2026-04-27 15:49 41.20959 -8.25970 39044 ft 485 kts 79°
2026-04-27 15:50 41.22250 -8.17186 39049 ft 485 kts 79°
2026-04-27 15:50 41.23535 -8.08393 39051 ft 485 kts 79°
2026-04-27 15:51 41.24806 -7.99651 39058 ft 485 kts 79°
2026-04-27 15:51 41.26077 -7.90858 39055 ft 485 kts 79°
2026-04-27 15:52 41.27341 -7.82064 39061 ft 484 kts 79°
2026-04-27 15:52 41.28599 -7.73262 39063 ft 485 kts 79°
2026-04-27 15:53 41.29851 -7.64456 39060 ft 485 kts 79°
2026-04-27 15:53 41.31096 -7.55638 39062 ft 485 kts 80°
2026-04-27 15:54 41.32337 -7.46805 39060 ft 486 kts 80°
2026-04-27 15:54 41.33573 -7.37955 39057 ft 487 kts 80°
2026-04-27 15:55 41.34804 -7.29097 39057 ft 487 kts 80°
2026-04-27 15:55 41.36027 -7.20236 39060 ft 487 kts 80°
2026-04-27 15:56 41.37243 -7.11370 39060 ft 487 kts 80°
2026-04-27 15:56 41.38454 -7.02492 39059 ft 487 kts 80°
2026-04-27 15:57 41.39656 -6.93617 39059 ft 487 kts 80°
2026-04-27 15:57 41.40853 -6.84737 39058 ft 487 kts 80°
2026-04-27 15:58 41.42043 -6.75852 39058 ft 488 kts 80°
2026-04-27 15:58 41.43227 -6.66958 39068 ft 488 kts 81°
2026-04-27 15:59 41.44404 -6.58054 39068 ft 488 kts 81°
2026-04-27 15:59 41.45574 -6.49149 39075 ft 488 kts 81°
2026-04-27 16:00 41.46737 -6.40245 39074 ft 488 kts 81°
2026-04-27 16:00 41.47897 -6.31319 39084 ft 489 kts 81°
2026-04-27 16:01 41.48781 -6.22365 39088 ft 488 kts 85°
2026-04-27 16:01 41.49434 -6.13355 39089 ft 488 kts 85°
2026-04-27 16:02 41.50093 -6.04345 39091 ft 488 kts 85°
2026-04-27 16:02 41.50750 -5.95388 39095 ft 488 kts 85°
2026-04-27 16:03 41.51414 -5.86308 39102 ft 488 kts 85°
2026-04-27 16:03 41.52065 -5.77288 39101 ft 488 kts 85°
2026-04-27 16:04 41.52281 -5.68267 39100 ft 485 kts 101°
2026-04-27 16:04 41.51376 -5.63966 39102 ft 480 kts 116°
2026-04-27 16:04 41.49707 -5.60222 39105 ft 474 kts 132°
2026-04-27 16:05 41.45035 -5.54088 39103 ft 472 kts 141°
2026-04-27 16:05 41.40162 -5.48210 39102 ft 473 kts 141°
2026-04-27 16:06 41.35294 -5.42309 39100 ft 473 kts 140°
2026-04-27 16:06 41.30429 -5.36401 39095 ft 473 kts 140°
2026-04-27 16:07 41.25567 -5.30501 39098 ft 474 kts 140°
2026-04-27 16:07 41.20696 -5.24597 39099 ft 475 kts 139°
2026-04-27 16:08 41.16389 -5.17907 38958 ft 484 kts 126°